M I D A S
Marine Information and Data Acquisition System
Tripno 1520 of the Zeeleeuw from 2008-07-16 06:56:36 to 2008-07-16 11:30:06
Back to CruiseResearch ActivitiesStationsMapUnderway DataData graphs

EquipmentUnitsComment
TimeDGPSUTC
LatitudeDGPSDM.mWGS84
LongitudeDGPSDM.mWGS84
TemperatureSBE03/SBE38deg celciusITS90
ConductivitySBE21S/mITS90
SalinitySBE21 Practical Salinity Units
ChlorophylAChelsea fluorimeterg/lCalibrated in Aceton
Missing or incorrect values are displayed as -999
Sea surface data collected by the RV Zeeleeuw from 2008-07-16 06:49:13 to 2008-07-16 11:42:08
                                                                                    Next 1000 lines
Time Latitude Longitude Temperature Conductivity Salinity ChlorophylA
2008-07-16 06:49:23 51°13.623 2°56.047 21.0958 0.072051 0.381039 -1.662225
2008-07-16 06:49:28 51°13.623 2°56.048 21.0975 0.072051 0.381039 -1.627401
2008-07-16 06:49:33 51°13.623 2°56.048 21.1027 0.072051 0.381039 -1.627401
2008-07-16 06:49:38 51°13.623 2°56.048 21.1024 0.072154 0.381601 -1.627401
2008-07-16 06:49:43 51°13.623 2°56.048 21.1039 0.072154 0.381595 -1.627401
2008-07-16 06:49:48 51°13.623 2°56.048 21.104 0.072051 0.381033 -1.627401
2008-07-16 06:49:53 51°13.623 2°56.048 21.1039 0.072051 0.381033 -1.627401
2008-07-16 06:49:58 51°13.623 2°56.047 21.1038 0.072051 0.381027 -1.662225
2008-07-16 06:50:03 51°13.623 2°56.047 21.1034 0.072051 0.381027 -1.627401
2008-07-16 06:50:08 51°13.622 2°56.047 21.1036 0.072154 0.381588 -1.627401
2008-07-16 06:50:13 51°13.623 2°56.047 21.1036 0.072154 0.381588 -1.627401
2008-07-16 06:50:18 51°13.623 2°56.047 21.1035 0.072051 0.381027 -1.627401
2008-07-16 06:50:23 51°13.623 2°56.048 21.1031 0.072051 0.381027 -1.627401
2008-07-16 06:50:28 51°13.623 2°56.048 21.1034 0.072154 0.381582 -1.627401
2008-07-16 06:50:33 51°13.623 2°56.048 21.1032 0.072154 0.381582 -1.627401
2008-07-16 06:50:38 51°13.623 2°56.048 21.1043 0.072154 0.381576 -1.662225
2008-07-16 06:50:43 51°13.623 2°56.048 21.104 0.072154 0.381576 -1.662225
2008-07-16 06:50:48 51°13.623 2°56.048 21.1042 0.072051 0.381014 -1.627401
2008-07-16 06:50:53 51°13.624 2°56.048 21.1046 0.072051 0.381014 -1.627401
2008-07-16 06:50:58 51°13.623 2°56.048 21.105 0.072154 0.381569 -1.627401
2008-07-16 06:51:03 51°13.623 2°56.048 21.1055 0.072154 0.381569 -1.662225
2008-07-16 06:51:08 51°13.623 2°56.048 21.1057 0.072154 0.381563 -1.662225
2008-07-16 06:51:13 51°13.622 2°56.047 21.106 0.072154 0.381563 -1.662225
2008-07-16 06:51:18 51°13.622 2°56.047 21.1065 0.072154 0.381563 -1.627401
2008-07-16 06:51:23 51°13.622 2°56.047 21.1073 0.072154 0.381563 -1.627401
2008-07-16 06:51:28 51°13.623 2°56.047 21.1077 0.072154 0.381563 -1.627401
2008-07-16 06:51:33 51°13.623 2°56.048 21.1081 0.072154 0.381556 -1.662225
2008-07-16 06:51:38 51°13.623 2°56.048 21.1086 0.072154 0.381556 -1.627401
2008-07-16 06:51:43 51°13.623 2°56.048 21.1095 0.072154 0.381556 -1.662225
2008-07-16 06:51:48 51°13.624 2°56.048 21.1093 0.072154 0.38155 -1.662225
2008-07-16 06:51:53 51°13.624 2°56.049 21.1082 0.072154 0.38155 -1.662225
2008-07-16 06:51:58 51°13.624 2°56.049 21.1081 0.072154 0.38155 -1.627401
2008-07-16 06:52:03 51°13.624 2°56.049 21.106 0.072154 0.38155 -1.627401
2008-07-16 06:52:08 51°13.623 2°56.048 21.1064 0.072154 0.381543 -1.662225
2008-07-16 06:52:13 51°13.622 2°56.047 21.1057 0.072154 0.381543 -1.662225
2008-07-16 06:52:18 51°13.622 2°56.047 21.106 0.072154 0.381543 -1.627401
2008-07-16 06:52:23 51°13.622 2°56.047 21.1069 0.072154 0.381543 -1.627401
2008-07-16 06:52:28 51°13.622 2°56.047 21.1097 0.072154 0.381543 -1.662225
2008-07-16 06:52:33 51°13.622 2°56.047 21.1124 0.072154 0.381537 -1.627401
2008-07-16 06:52:38 51°13.622 2°56.047 21.1129 0.072154 0.381537 -1.662225
2008-07-16 06:52:43 51°13.623 2°56.048 21.1127 0.072154 0.381537 -1.627401
2008-07-16 06:52:48 51°13.623 2°56.048 21.1136 0.072154 0.381537 -1.662225
2008-07-16 06:52:53 51°13.623 2°56.048 21.116 0.072154 0.381537 -1.662225
2008-07-16 06:52:58 51°13.623 2°56.048 21.1161 0.072154 0.381537 -1.627401
2008-07-16 06:53:03 51°13.623 2°56.048 21.1149 0.072154 0.38153 -1.662225
2008-07-16 06:53:08 51°13.623 2°56.048 21.1147 0.072154 0.381524 -1.662225
2008-07-16 06:53:13 51°13.623 2°56.048 21.1136 0.072154 0.381524 -1.627401
2008-07-16 06:53:18 51°13.623 2°56.048 21.1154 0.072154 0.381524 -1.627401
2008-07-16 06:53:23 51°13.623 2°56.048 21.1158 0.072154 0.381524 -1.627401
2008-07-16 06:53:28 51°13.623 2°56.048 21.1172 0.072154 0.381518 -1.627401
2008-07-16 06:53:33 51°13.623 2°56.048 21.1172 0.072154 0.381518 -1.662225
2008-07-16 06:53:38 51°13.623 2°56.048 21.1174 0.072154 0.381518 -1.662225
2008-07-16 06:53:43 51°13.623 2°56.049 21.1173 0.072154 0.381518 -1.662225
2008-07-16 06:53:48 51°13.623 2°56.048 21.1168 0.072154 0.381518 -1.627401
2008-07-16 06:53:53 51°13.623 2°56.048 21.1164 0.072154 0.381518 -1.627401
2008-07-16 06:53:58 51°13.622 2°56.048 21.1158 0.072154 0.381511 -1.627401
2008-07-16 06:54:03 51°13.622 2°56.048 21.1157 0.072154 0.381511 -1.662225
2008-07-16 06:54:08 51°13.622 2°56.048 21.116 0.072154 0.381511 -1.662225
2008-07-16 06:54:13 51°13.622 2°56.048 21.1161 0.072154 0.381505 -1.662225
2008-07-16 06:54:18 51°13.623 2°56.048 21.1155 0.072154 0.381505 -1.627401
2008-07-16 06:54:23 51°13.623 2°56.048 21.1149 0.072154 0.381505 -1.627401
2008-07-16 06:54:28 51°13.623 2°56.048 21.1148 0.072154 0.381505 -1.627401
2008-07-16 06:54:33 51°13.623 2°56.048 21.1145 0.072154 0.381505 -1.627401
2008-07-16 06:54:38 51°13.623 2°56.048 21.1157 0.072154 0.381498 -1.662225
2008-07-16 06:54:43 51°13.623 2°56.048 21.116 0.072154 0.381498 -1.627401
2008-07-16 06:54:48 51°13.623 2°56.048 21.1163 0.072154 0.381498 -1.627401
2008-07-16 06:54:53 51°13.623 2°56.048 21.117 0.072154 0.381498 -1.627401
2008-07-16 06:54:58 51°13.623 2°56.048 21.1171 0.072154 0.381492 -1.627401
2008-07-16 06:55:03 51°13.623 2°56.048 21.1169 0.072154 0.381492 -1.662225
2008-07-16 06:55:08 51°13.623 2°56.047 21.1165 0.072154 0.381485 -1.662225
2008-07-16 06:55:13 51°13.623 2°56.047 21.1171 0.072154 0.381485 -1.662225
2008-07-16 06:55:18 51°13.623 2°56.047 21.1172 0.072154 0.381485 -1.627401
2008-07-16 06:55:23 51°13.623 2°56.048 21.1168 0.072154 0.381485 -1.627401
2008-07-16 06:55:28 51°13.623 2°56.048 21.1169 0.072154 0.381479 -1.662225
2008-07-16 06:55:33 51°13.622 2°56.048 21.1175 0.072154 0.381479 -1.627401
2008-07-16 06:55:38 51°13.622 2°56.048 21.1345 0.072154 0.381485 -1.662225
2008-07-16 06:55:43 51°13.622 2°56.048 21.1454 0.072154 0.381479 -1.662225
2008-07-16 06:55:48 51°13.622 2°56.048 21.1413 0.072154 0.381479 -1.627401
2008-07-16 06:55:53 51°13.622 2°56.048 21.142 0.072154 0.381479 -1.627401
2008-07-16 06:55:58 51°13.622 2°56.048 21.1401 0.072154 0.381472 -1.662225
2008-07-16 06:56:03 51°13.622 2°56.048 21.1402 0.072154 0.381466 -1.662225
2008-07-16 06:56:08 51°13.621 2°56.048 21.129 0.072154 0.381466 -1.627401
2008-07-16 06:56:13 51°13.621 2°56.047 21.0859 0.072154 0.381466 -1.662225
2008-07-16 06:56:18 51°13.622 2°56.046 21.0641 0.072154 0.381466 -1.627401
2008-07-16 06:56:23 51°13.622 2°56.044 21.0843 0.072154 0.381466 -1.627401
2008-07-16 06:56:28 51°13.622 2°56.042 21.0802 0.072154 0.38146 -1.627401
2008-07-16 06:56:33 51°13.623 2°56.038 21.0799 0.072154 0.38146 -1.662225
2008-07-16 06:56:38 51°13.624 2°56.034 21.0914 0.072154 0.38146 -1.662225
2008-07-16 06:56:43 51°13.625 2°56.029 21.1018 0.072154 0.38146 -1.627401
2008-07-16 06:56:48 51°13.627 2°56.024 21.0992 0.072154 0.381453 -1.662225
2008-07-16 06:56:53 51°13.628 2°56.018 21.1028 0.072154 0.381453 -1.662225
2008-07-16 06:56:58 51°13.63 2°56.012 21.1082 0.072154 0.381447 -1.627401
2008-07-16 06:57:03 51°13.632 2°56.006 21.1151 0.072154 0.381447 -1.627401
2008-07-16 06:57:08 51°13.634 2°56 21.1015 0.072154 0.38144 -1.627401
2008-07-16 06:57:13 51°13.636 2°55.993 21.0984 0.072154 0.381447 -1.627401
2008-07-16 06:57:18 51°13.638 2°55.985 21.1078 0.072154 0.38144 -1.627401
2008-07-16 06:57:23 51°13.64 2°55.978 21.1126 0.072154 0.38144 -1.627401
2008-07-16 06:57:28 51°13.643 2°55.97 21.1231 0.072154 0.381447 -1.627401
2008-07-16 06:57:33 51°13.645 2°55.962 21.1181 0.072154 0.381447 -1.662225
2008-07-16 06:57:38 51°13.647 2°55.953 21.1154 0.072154 0.38144 -1.662225
2008-07-16 06:57:43 51°13.649 2°55.944 21.1164 0.072154 0.38144 -1.662225
2008-07-16 06:57:48 51°13.652 2°55.936 21.1198 0.072154 0.381434 -1.627401
2008-07-16 06:57:53 51°13.655 2°55.927 21.1271 0.072154 0.381434 -1.627401
2008-07-16 06:57:58 51°13.657 2°55.918 21.1272 0.072154 0.381434 -1.627401
2008-07-16 06:58:03 51°13.66 2°55.908 21.122 0.072154 0.381427 -1.627401
2008-07-16 06:58:08 51°13.664 2°55.899 21.1157 0.072154 0.381421 -1.662225
2008-07-16 06:58:13 51°13.667 2°55.89 21.1244 0.072154 0.381414 -1.662225
2008-07-16 06:58:18 51°13.67 2°55.881 21.1253 0.072154 0.381414 -1.627401
2008-07-16 06:58:23 51°13.674 2°55.873 21.1359 0.072154 0.381414 -1.627401
2008-07-16 06:58:28 51°13.677 2°55.865 21.1406 0.072154 0.381414 -1.662225
2008-07-16 06:58:33 51°13.68 2°55.857 21.1385 0.072154 0.381408 -1.662225
2008-07-16 06:58:38 51°13.683 2°55.85 21.1348 0.072154 0.381414 -1.627401
2008-07-16 06:58:43 51°13.686 2°55.843 21.1322 0.072154 0.381414 -1.662225
2008-07-16 06:58:48 51°13.689 2°55.835 21.1316 0.072154 0.381414 -1.627401
2008-07-16 06:58:53 51°13.692 2°55.828 21.1313 0.072154 0.381414 -1.627401
2008-07-16 06:58:58 51°13.696 2°55.821 21.132 0.072154 0.381414 -1.627401
2008-07-16 06:59:03 51°13.699 2°55.814 21.1335 0.072154 0.381414 -1.627401
2008-07-16 06:59:08 51°13.702 2°55.807 21.1429 0.072154 0.381414 -1.662225
2008-07-16 06:59:13 51°13.706 2°55.801 21.1485 0.072154 0.381414 -1.627401
2008-07-16 06:59:18 51°13.709 2°55.795 21.1419 0.072154 0.381414 -1.627401
2008-07-16 06:59:23 51°13.711 2°55.79 21.1458 0.072154 0.381414 -1.627401
2008-07-16 06:59:28 51°13.714 2°55.786 21.1345 0.072154 0.381414 -1.662225
2008-07-16 06:59:33 51°13.716 2°55.782 21.1296 0.072154 0.381408 -1.662225
2008-07-16 06:59:38 51°13.718 2°55.779 21.1302 0.072154 0.381408 -1.627401
2008-07-16 06:59:43 51°13.72 2°55.776 21.1298 0.072154 0.381408 -1.662225
2008-07-16 06:59:48 51°13.722 2°55.773 21.1285 0.072154 0.381402 -1.627401
2008-07-16 06:59:53 51°13.724 2°55.77 21.1281 0.072154 0.381402 -1.627401
2008-07-16 06:59:58 51°13.726 2°55.767 21.1037 0.072154 0.381402 -1.627401
2008-07-16 07:00:03 51°13.729 2°55.763 21.0851 0.072154 0.381395 -1.627401
2008-07-16 07:00:08 51°13.732 2°55.76 21.0901 0.072154 0.381395 -1.627401
2008-07-16 07:00:13 51°13.735 2°55.755 21.0915 0.072154 0.381395 -1.627401
2008-07-16 07:00:18 51°13.738 2°55.75 21.1052 0.072154 0.381389 -1.662225
2008-07-16 07:00:23 51°13.742 2°55.745 21.1074 0.072154 0.381389 -1.662225
2008-07-16 07:00:28 51°13.746 2°55.739 21.1201 0.072154 0.381389 -1.662225
2008-07-16 07:00:33 51°13.75 2°55.733 21.1227 0.072154 0.381389 -1.662225
2008-07-16 07:00:38 51°13.754 2°55.727 21.1259 0.072154 0.381395 -1.627401
2008-07-16 07:00:43 51°13.759 2°55.72 21.1185 0.072154 0.381395 -1.662225
2008-07-16 07:00:48 51°13.763 2°55.713 21.1305 0.072154 0.381395 -1.662225
2008-07-16 07:00:53 51°13.768 2°55.706 21.1107 0.072154 0.381395 -1.662225
2008-07-16 07:00:58 51°13.773 2°55.699 21.115 0.072154 0.381395 -1.662225
2008-07-16 07:01:03 51°13.778 2°55.691 21.1144 0.072154 0.381395 -1.627401
2008-07-16 07:01:08 51°13.783 2°55.683 21.1305 0.072154 0.381395 -1.627401
2008-07-16 07:01:13 51°13.788 2°55.675 21.1226 0.072154 0.381389 -1.662225
2008-07-16 07:01:18 51°13.793 2°55.667 21.1352 0.072154 0.381389 -1.662225
2008-07-16 07:01:23 51°13.798 2°55.66 21.1262 0.072154 0.381389 -1.662225
2008-07-16 07:01:28 51°13.803 2°55.652 21.1278 0.072154 0.381389 -1.662225
2008-07-16 07:01:33 51°13.809 2°55.645 21.1385 0.072154 0.381382 -1.627401
2008-07-16 07:01:38 51°13.814 2°55.638 21.1528 0.072154 0.381382 -1.627401
2008-07-16 07:01:43 51°13.819 2°55.632 21.1508 0.072154 0.381376 -1.662225
2008-07-16 07:01:48 51°13.825 2°55.626 21.145 0.072154 0.381376 -1.662225
2008-07-16 07:01:53 51°13.83 2°55.621 21.121 0.072154 0.381376 -1.662225
2008-07-16 07:01:58 51°13.836 2°55.616 21.126 0.072154 0.381376 -1.627401
2008-07-16 07:02:03 51°13.841 2°55.611 21.1335 0.072154 0.381376 -1.627401
2008-07-16 07:02:08 51°13.847 2°55.607 21.1313 0.072154 0.381376 -1.627401
2008-07-16 07:02:13 51°13.852 2°55.602 21.1304 0.072154 0.381376 -1.627401
2008-07-16 07:02:18 51°13.858 2°55.598 21.1434 0.072154 0.381382 -1.662225
2008-07-16 07:02:23 51°13.864 2°55.594 21.1288 0.072154 0.381382 -1.662225
2008-07-16 07:02:28 51°13.87 2°55.59 21.1475 0.072154 0.381382 -1.662225
2008-07-16 07:02:33 51°13.877 2°55.588 21.1486 0.072154 0.381389 -1.662225
2008-07-16 07:02:38 51°13.883 2°55.586 21.1575 0.072154 0.381382 -1.662225
2008-07-16 07:02:43 51°13.889 2°55.585 21.1649 0.072154 0.381382 -1.627401
2008-07-16 07:02:48 51°13.895 2°55.585 21.1591 0.072154 0.381389 -1.627401
2008-07-16 07:02:53 51°13.901 2°55.585 21.155 0.072154 0.381389 -1.627401
2008-07-16 07:02:58 51°13.906 2°55.586 21.1532 0.072154 0.381389 -1.662225
2008-07-16 07:03:03 51°13.911 2°55.587 21.1481 0.072154 0.381395 -1.627401
2008-07-16 07:03:08 51°13.916 2°55.589 21.1482 0.072154 0.381395 -1.627401
2008-07-16 07:03:13 51°13.921 2°55.591 21.1444 0.072154 0.381402 -1.662225
2008-07-16 07:03:18 51°13.925 2°55.594 21.1427 0.072154 0.381408 -1.662225
2008-07-16 07:03:23 51°13.93 2°55.596 21.1442 0.072154 0.381408 -1.662225
2008-07-16 07:03:28 51°13.934 2°55.6 21.1466 0.072154 0.381414 -1.662225
2008-07-16 07:03:33 51°13.938 2°55.603 21.1495 0.072154 0.381414 -1.662225
2008-07-16 07:03:38 51°13.942 2°55.606 21.1561 0.072154 0.381414 -1.627401
2008-07-16 07:03:43 51°13.945 2°55.609 21.162 0.072154 0.381421 -1.627401
2008-07-16 07:03:48 51°13.948 2°55.611 21.1601 0.072154 0.381421 -1.627401
2008-07-16 07:03:53 51°13.95 2°55.614 21.158 0.072154 0.381421 -1.627401
2008-07-16 07:03:58 51°13.952 2°55.615 21.1566 0.072154 0.381421 -1.627401
2008-07-16 07:04:03 51°13.953 2°55.616 21.1585 0.072154 0.381414 -1.662225
2008-07-16 07:04:08 51°13.954 2°55.616 21.1589 0.072154 0.381414 -1.627401
2008-07-16 07:04:13 51°13.955 2°55.616 21.1603 0.072154 0.381408 -1.662225
2008-07-16 07:04:18 51°13.955 2°55.615 21.1628 0.072154 0.381402 -1.662225
2008-07-16 07:04:23 51°13.955 2°55.614 21.1667 0.072154 0.381402 -1.662225
2008-07-16 07:04:28 51°13.955 2°55.612 21.1632 0.072154 0.381402 -1.662225
2008-07-16 07:04:33 51°13.954 2°55.61 21.1386 0.072154 0.381395 -1.662225
2008-07-16 07:04:38 51°13.954 2°55.606 21.0849 0.072154 0.381402 -1.662225
2008-07-16 07:04:43 51°13.954 2°55.602 21.0515 0.072154 0.381402 -1.627401
2008-07-16 07:04:48 51°13.954 2°55.597 21.0818 0.072154 0.381402 -1.627401
2008-07-16 07:04:53 51°13.955 2°55.591 21.0449 0.072154 0.381402 -1.627401
2008-07-16 07:04:58 51°13.956 2°55.585 21.0453 0.072154 0.381408 -1.627401
2008-07-16 07:05:03 51°13.958 2°55.579 21.0692 0.072154 0.381408 -1.627401
2008-07-16 07:05:08 51°13.96 2°55.573 21.068 0.072154 0.381414 -1.627401
2008-07-16 07:05:13 51°13.963 2°55.566 21.0742 0.072154 0.381421 -1.627401
2008-07-16 07:05:18 51°13.966 2°55.56 21.096 0.072154 0.381421 -1.662225
2008-07-16 07:05:23 51°13.97 2°55.555 21.1263 0.072154 0.381421 -1.662225
2008-07-16 07:05:28 51°13.975 2°55.549 21.144 0.072154 0.381414 -1.627401
2008-07-16 07:05:33 51°13.98 2°55.542 21.1559 0.072154 0.381414 -1.627401
2008-07-16 07:05:38 51°13.986 2°55.536 21.1566 0.072154 0.381421 -1.627401
2008-07-16 07:05:43 51°13.993 2°55.528 21.1559 0.072154 0.381421 -1.627401
2008-07-16 07:05:48 51°14.001 2°55.52 21.1557 0.072154 0.381421 -1.662225
2008-07-16 07:05:53 51°14.009 2°55.512 21.152 0.072154 0.381421 -1.662225
2008-07-16 07:05:58 51°14.018 2°55.504 21.1399 0.072154 0.381414 -1.662225
2008-07-16 07:06:03 51°14.027 2°55.495 21.1387 0.072154 0.381408 -1.662225
2008-07-16 07:06:08 51°14.037 2°55.486 21.143 0.072154 0.381402 -1.662225
2008-07-16 07:06:13 51°14.046 2°55.477 21.1407 0.072154 0.381402 -1.662225
2008-07-16 07:06:18 51°14.056 2°55.467 21.1419 0.072154 0.381402 -1.627401
2008-07-16 07:06:23 51°14.067 2°55.458 21.1427 0.072154 0.381402 -1.627401
2008-07-16 07:06:28 51°14.078 2°55.449 21.1449 0.072154 0.381402 -1.662225
2008-07-16 07:06:33 51°14.088 2°55.438 21.1318 0.072154 0.381408 -1.662225
2008-07-16 07:06:38 51°14.099 2°55.428 21.1229 0.072154 0.381414 -1.662225
2008-07-16 07:06:43 51°14.11 2°55.418 21.122 0.072154 0.381408 -1.627401
2008-07-16 07:06:48 51°14.122 2°55.408 21.1377 0.072154 0.381414 -1.662225
2008-07-16 07:06:53 51°14.133 2°55.398 21.1331 0.072154 0.381414 -1.662225
2008-07-16 07:06:58 51°14.144 2°55.387 21.1505 0.072154 0.381414 -1.662225
2008-07-16 07:07:03 51°14.156 2°55.376 21.1528 0.072154 0.381414 -1.662225
2008-07-16 07:07:08 51°14.167 2°55.364 21.1368 0.072154 0.381414 -1.662225
2008-07-16 07:07:13 51°14.179 2°55.352 21.1565 0.072154 0.381408 -1.627401
2008-07-16 07:07:18 51°14.19 2°55.34 21.1572 0.072154 0.381408 -1.627401
2008-07-16 07:07:23 51°14.201 2°55.327 21.1585 0.072154 0.381408 -1.627401
2008-07-16 07:07:28 51°14.212 2°55.313 21.1432 0.072154 0.381414 -1.662225
2008-07-16 07:07:33 51°14.224 2°55.298 21.1244 0.072154 0.381414 -1.662225
2008-07-16 07:07:38 51°14.235 2°55.284 21.1678 0.072154 0.381414 -1.662225
2008-07-16 07:07:43 51°14.245 2°55.269 21.1765 0.072154 0.381421 -1.662225
2008-07-16 07:07:48 51°14.256 2°55.253 21.1586 0.072154 0.381427 -1.627401
2008-07-16 07:07:53 51°14.266 2°55.236 21.1237 0.072154 0.381427 -1.627401
2008-07-16 07:07:58 51°14.277 2°55.219 21.1316 0.072154 0.381434 -1.662225
2008-07-16 07:08:03 51°14.287 2°55.203 21.1639 0.072154 0.381434 -1.627401
2008-07-16 07:08:08 51°14.297 2°55.185 21.1194 0.072154 0.38144 -1.627401
2008-07-16 07:08:13 51°14.307 2°55.168 21.1435 0.072154 0.381434 -1.627401
2008-07-16 07:08:18 51°14.317 2°55.15 21.1269 0.072154 0.381434 -1.627401
2008-07-16 07:08:23 51°14.327 2°55.132 21.1438 0.072154 0.381434 -1.627401
2008-07-16 07:08:28 51°14.337 2°55.113 21.1154 0.072154 0.38144 -1.662225
2008-07-16 07:08:33 51°14.347 2°55.094 21.1506 0.072154 0.381434 -1.662225
2008-07-16 07:08:38 51°14.357 2°55.075 21.1487 0.072154 0.38144 -1.662225
2008-07-16 07:08:43 51°14.366 2°55.056 21.1052 0.072154 0.381447 -1.627401
2008-07-16 07:08:48 51°14.376 2°55.036 21.0513 0.072154 0.381447 -1.627401
2008-07-16 07:08:53 51°14.386 2°55.017 21.0931 0.072154 0.381447 -1.627401
2008-07-16 07:08:58 51°14.397 2°54.998 21.157 0.072154 0.381447 -1.662225
2008-07-16 07:09:03 51°14.407 2°54.978 21.1154 0.072154 0.38146 -1.662225
2008-07-16 07:09:08 51°14.418 2°54.958 21.0624 0.072154 0.381466 -1.627401
2008-07-16 07:09:13 51°14.429 2°54.939 21.1281 0.072154 0.381466 -1.662225
2008-07-16 07:09:18 51°14.441 2°54.92 21.131 0.072154 0.381472 -1.662225
2008-07-16 07:09:23 51°14.453 2°54.901 21.1206 0.072154 0.381472 -1.662225
2008-07-16 07:09:28 51°14.465 2°54.882 21.1351 0.072154 0.381485 -1.627401
2008-07-16 07:09:33 51°14.476 2°54.862 21.1141 0.072154 0.381498 -1.662225
2008-07-16 07:09:38 51°14.488 2°54.842 21.1172 0.072154 0.381498 -1.627401
2008-07-16 07:09:43 51°14.499 2°54.823 21.1081 0.072154 0.381498 -1.627401
2008-07-16 07:09:48 51°14.511 2°54.803 21.1247 0.072154 0.381492 -1.627401
2008-07-16 07:09:53 51°14.523 2°54.784 21.1341 0.072154 0.381492 -1.627401
2008-07-16 07:09:58 51°14.535 2°54.764 21.1238 0.072154 0.381498 -1.662225
2008-07-16 07:10:03 51°14.547 2°54.745 21.1371 0.072154 0.381492 -1.662225
2008-07-16 07:10:08 51°14.559 2°54.725 21.1398 0.072154 0.381485 -1.662225
2008-07-16 07:10:13 51°14.571 2°54.705 21.1137 0.072154 0.381492 -1.627401
2008-07-16 07:10:18 51°14.582 2°54.686 21.1418 0.072154 0.381498 -1.627401
2008-07-16 07:10:23 51°14.594 2°54.665 21.1454 0.072154 0.381498 -1.627401
2008-07-16 07:10:28 51°14.605 2°54.645 21.1627 0.072154 0.381505 -1.627401
2008-07-16 07:10:33 51°14.616 2°54.624 21.1622 0.072154 0.381524 -1.662225
2008-07-16 07:10:38 51°14.627 2°54.602 21.1142 0.072154 0.381537 -1.662225
2008-07-16 07:10:43 51°14.637 2°54.581 21.1361 0.072154 0.381537 -1.662225
2008-07-16 07:10:48 51°14.648 2°54.559 21.1318 0.072154 0.381524 -1.627401
2008-07-16 07:10:53 51°14.659 2°54.539 21.1516 0.072154 0.381524 -1.627401
2008-07-16 07:10:58 51°14.669 2°54.517 21.1022 0.072154 0.381537 -1.627401
2008-07-16 07:11:03 51°14.68 2°54.496 21.131 0.072154 0.38153 -1.627401
2008-07-16 07:11:08 51°14.691 2°54.475 21.1072 0.072154 0.381537 -1.662225
2008-07-16 07:11:13 51°14.702 2°54.454 21.1238 0.072154 0.381524 -1.627401
2008-07-16 07:11:18 51°14.714 2°54.434 21.136 0.072154 0.381543 -1.662225
2008-07-16 07:11:23 51°14.725 2°54.414 21.1091 0.072154 0.381543 -1.662225
2008-07-16 07:11:28 51°14.736 2°54.393 21.1343 0.072154 0.38155 -1.627401
2008-07-16 07:11:33 51°14.746 2°54.372 21.1263 0.072154 0.381563 -1.627401
2008-07-16 07:11:38 51°14.757 2°54.351 21.1373 0.072154 0.381569 -1.627401
2008-07-16 07:11:43 51°14.768 2°54.33 21.1546 0.072154 0.381576 -1.627401
2008-07-16 07:11:48 51°14.778 2°54.308 21.1124 0.072154 0.381582 -1.627401
2008-07-16 07:11:53 51°14.788 2°54.286 21.0945 0.072154 0.381582 -1.627401
2008-07-16 07:11:58 51°14.798 2°54.264 21.1267 0.072154 0.381576 -1.662225
2008-07-16 07:12:03 51°14.808 2°54.243 21.1213 0.072154 0.381576 -1.662225
2008-07-16 07:12:08 51°14.819 2°54.222 21.1492 0.072154 0.381569 -1.627401
2008-07-16 07:12:13 51°14.829 2°54.2 21.1492 0.072154 0.381576 -1.662225
2008-07-16 07:12:18 51°14.838 2°54.178 21.1557 0.072154 0.381576 -1.662225
2008-07-16 07:12:23 51°14.847 2°54.155 21.1389 0.072154 0.381576 -1.662225
2008-07-16 07:12:28 51°14.855 2°54.131 21.1609 0.072154 0.381582 -1.662225
2008-07-16 07:12:33 51°14.862 2°54.106 21.1717 0.072154 0.381588 -1.627401
2008-07-16 07:12:38 51°14.868 2°54.081 21.1339 0.072154 0.381582 -1.662225
2008-07-16 07:12:43 51°14.874 2°54.055 21.1502 0.072154 0.381582 -1.627401
2008-07-16 07:12:48 51°14.879 2°54.029 21.1425 0.072154 0.381576 -1.662225
2008-07-16 07:12:53 51°14.883 2°54.003 21.1193 0.072154 0.381576 -1.662225
2008-07-16 07:12:58 51°14.888 2°53.976 21.1316 0.072154 0.381569 -1.627401
2008-07-16 07:13:03 51°14.892 2°53.949 21.1055 0.072154 0.381563 -1.662225
2008-07-16 07:13:08 51°14.896 2°53.922 21.1042 0.072154 0.38155 -1.662225
2008-07-16 07:13:13 51°14.9 2°53.895 21.119 0.072154 0.381543 -1.627401
2008-07-16 07:13:18 51°14.904 2°53.868 21.1242 0.072154 0.381543 -1.627401
2008-07-16 07:13:23 51°14.909 2°53.841 21.1286 0.072154 0.381543 -1.627401
2008-07-16 07:13:28 51°14.914 2°53.815 21.1132 0.072154 0.381543 -1.627401
2008-07-16 07:13:33 51°14.918 2°53.788 21.1416 0.072154 0.38155 -1.627401
2008-07-16 07:13:38 51°14.922 2°53.761 21.115 0.072154 0.381556 -1.662225
2008-07-16 07:13:43 51°14.926 2°53.734 21.1353 0.072154 0.381563 -1.662225
2008-07-16 07:13:48 51°14.93 2°53.707 21.1064 0.072154 0.381556 -1.627401
2008-07-16 07:13:53 51°14.933 2°53.68 21.1331 0.072154 0.381556 -1.627401
2008-07-16 07:13:58 51°14.936 2°53.653 21.1515 0.072154 0.38155 -1.662225
2008-07-16 07:14:03 51°14.938 2°53.625 21.0979 0.072154 0.381569 -1.627401
2008-07-16 07:14:08 51°14.94 2°53.598 21.1248 0.072154 0.381543 -1.627401
2008-07-16 07:14:13 51°14.942 2°53.57 21.1048 0.072154 0.381543 -1.627401
2008-07-16 07:14:18 51°14.943 2°53.542 21.128 0.072154 0.381537 -1.627401
2008-07-16 07:14:23 51°14.944 2°53.514 21.1371 0.072154 0.381537 -1.627401
2008-07-16 07:14:28 51°14.946 2°53.487 21.1233 0.072154 0.381537 -1.662225
2008-07-16 07:14:33 51°14.946 2°53.458 21.1194 0.072154 0.381543 -1.662225
2008-07-16 07:14:38 51°14.947 2°53.43 21.1244 0.072154 0.381543 -1.627401
2008-07-16 07:14:43 51°14.948 2°53.402 21.1107 0.072154 0.381543 -1.627401
2008-07-16 07:14:48 51°14.949 2°53.374 21.1012 0.072154 0.38155 -1.662225
2008-07-16 07:14:53 51°14.95 2°53.346 21.1276 0.072154 0.38155 -1.662225
2008-07-16 07:14:58 51°14.951 2°53.318 21.0999 0.072154 0.38155 -1.662225
2008-07-16 07:15:03 51°14.952 2°53.29 21.133 0.072154 0.38155 -1.662225
2008-07-16 07:15:08 51°14.953 2°53.262 21.1131 0.072154 0.38155 -1.627401
2008-07-16 07:15:13 51°14.954 2°53.234 21.1129 0.072154 0.38155 -1.662225
2008-07-16 07:15:18 51°14.955 2°53.205 21.1049 0.072154 0.38155 -1.627401
2008-07-16 07:15:23 51°14.956 2°53.178 21.1111 0.072154 0.38155 -1.627401
2008-07-16 07:15:28 51°14.957 2°53.15 21.1196 0.072154 0.381543 -1.627401
2008-07-16 07:15:33 51°14.958 2°53.122 21.1194 0.072154 0.381543 -1.627401
2008-07-16 07:15:38 51°14.959 2°53.094 21.1189 0.072154 0.381543 -1.627401
2008-07-16 07:15:43 51°14.96 2°53.066 21.1351 0.072154 0.381543 -1.627401
2008-07-16 07:15:48 51°14.961 2°53.038 21.1224 0.072154 0.381543 -1.627401
2008-07-16 07:15:53 51°14.962 2°53.01 21.1263 0.072154 0.381543 -1.627401
2008-07-16 07:15:58 51°14.963 2°52.982 21.1252 0.072154 0.381543 -1.662225
2008-07-16 07:16:03 51°14.964 2°52.954 21.1203 0.072154 0.381543 -1.662225
2008-07-16 07:16:08 51°14.966 2°52.926 21.1416 0.072154 0.381543 -1.627401
2008-07-16 07:16:13 51°14.967 2°52.898 21.136 0.072154 0.381537 -1.627401
2008-07-16 07:16:18 51°14.967 2°52.87 21.1169 0.072154 0.381537 -1.662225
2008-07-16 07:16:23 51°14.969 2°52.842 21.1369 0.072154 0.381537 -1.662225
2008-07-16 07:16:28 51°14.97 2°52.814 21.143 0.072154 0.381537 -1.662225
2008-07-16 07:16:33 51°14.97 2°52.786 21.1356 0.072154 0.381537 -1.627401
2008-07-16 07:16:38 51°14.971 2°52.758 21.1279 0.072154 0.381537 -1.627401
2008-07-16 07:16:43 51°14.972 2°52.73 21.1382 0.072154 0.381543 -1.662225
2008-07-16 07:16:48 51°14.972 2°52.702 21.1189 0.072154 0.381537 -1.662225
2008-07-16 07:16:53 51°14.973 2°52.674 21.1203 0.072154 0.381537 -1.662225
2008-07-16 07:16:58 51°14.973 2°52.646 21.1073 0.072154 0.381537 -1.627401
2008-07-16 07:17:03 51°14.973 2°52.617 21.1287 0.072154 0.381537 -1.627401
2008-07-16 07:17:08 51°14.973 2°52.589 21.1006 0.072154 0.381537 -1.662225
2008-07-16 07:17:13 51°14.974 2°52.561 21.1354 0.072154 0.381537 -1.627401
2008-07-16 07:17:18 51°14.974 2°52.533 21.1326 0.072154 0.381537 -1.662225
2008-07-16 07:17:23 51°14.974 2°52.505 21.1357 0.072154 0.381537 -1.662225
2008-07-16 07:17:28 51°14.974 2°52.476 21.1444 0.072154 0.381537 -1.627401
2008-07-16 07:17:33 51°14.975 2°52.448 21.1244 0.072154 0.381537 -1.627401
2008-07-16 07:17:38 51°14.975 2°52.42 21.124 0.072154 0.381537 -1.662225
2008-07-16 07:17:43 51°14.975 2°52.392 21.1335 0.072154 0.38153 -1.627401
2008-07-16 07:17:48 51°14.975 2°52.363 21.1407 0.072154 0.381537 -1.627401
2008-07-16 07:17:53 51°14.976 2°52.335 21.1217 0.072154 0.381537 -1.627401
2008-07-16 07:17:58 51°14.976 2°52.307 21.1227 0.072154 0.381537 -1.662225
2008-07-16 07:18:03 51°14.976 2°52.278 21.1251 0.072154 0.381537 -1.627401
2008-07-16 07:18:08 51°14.976 2°52.25 21.1271 0.072154 0.381543 -1.627401
2008-07-16 07:18:13 51°14.976 2°52.222 21.1146 0.072154 0.381543 -1.627401
2008-07-16 07:18:18 51°14.976 2°52.193 21.1262 0.072154 0.38155 -1.627401
2008-07-16 07:18:23 51°14.976 2°52.165 21.0934 0.072154 0.38155 -1.627401
2008-07-16 07:18:28 51°14.977 2°52.137 21.1326 0.072154 0.38155 -1.627401
2008-07-16 07:18:33 51°14.978 2°52.108 21.1455 0.072154 0.38155 -1.627401
2008-07-16 07:18:38 51°14.979 2°52.08 21.145 0.072154 0.38155 -1.662225
2008-07-16 07:18:43 51°14.98 2°52.052 21.1153 0.072154 0.381543 -1.627401
2008-07-16 07:18:48 51°14.982 2°52.024 21.1172 0.072154 0.381537 -1.627401
2008-07-16 07:18:53 51°14.983 2°51.996 21.1281 0.072154 0.381537 -1.627401
2008-07-16 07:18:58 51°14.985 2°51.968 21.1396 0.072154 0.381537 -1.627401
2008-07-16 07:19:03 51°14.986 2°51.94 21.1391 0.072154 0.381543 -1.627401
2008-07-16 07:19:08 51°14.987 2°51.911 21.1352 0.072154 0.381543 -1.627401
2008-07-16 07:19:13 51°14.988 2°51.883 21.1365 0.072154 0.381543 -1.627401
2008-07-16 07:19:18 51°14.989 2°51.855 21.1441 0.072154 0.38155 -1.662225
2008-07-16 07:19:23 51°14.99 2°51.827 21.106 0.072154 0.38155 -1.662225
2008-07-16 07:19:28 51°14.991 2°51.799 21.1329 0.072154 0.38155 -1.627401
2008-07-16 07:19:33 51°14.992 2°51.771 21.1208 0.072154 0.38155 -1.627401
2008-07-16 07:19:38 51°14.993 2°51.743 21.1333 0.072154 0.381556 -1.662225
2008-07-16 07:19:43 51°14.995 2°51.714 21.1503 0.072154 0.381563 -1.662225
2008-07-16 07:19:48 51°14.996 2°51.686 21.1422 0.072154 0.381563 -1.627401
2008-07-16 07:19:53 51°14.998 2°51.658 21.14 0.072154 0.381563 -1.627401
2008-07-16 07:19:58 51°14.999 2°51.63 21.1391 0.072154 0.381563 -1.627401
2008-07-16 07:20:03 51°15.001 2°51.601 21.1476 0.072154 0.381563 -1.662225
2008-07-16 07:20:08 51°15.003 2°51.573 21.133 0.072154 0.381563 -1.662225
2008-07-16 07:20:13 51°15.004 2°51.545 21.1313 0.072154 0.381556 -1.627401
2008-07-16 07:20:18 51°15.006 2°51.517 21.1119 0.072154 0.381556 -1.627401
2008-07-16 07:20:23 51°15.009 2°51.489 21.1395 0.072154 0.381556 -1.627401
2008-07-16 07:20:28 51°15.011 2°51.461 21.124 0.072154 0.381556 -1.627401
2008-07-16 07:20:33 51°15.014 2°51.433 21.1342 0.072154 0.381556 -1.627401
2008-07-16 07:20:38 51°15.017 2°51.405 21.1472 0.072154 0.381556 -1.662225
2008-07-16 07:20:43 51°15.02 2°51.377 21.1505 0.072154 0.381563 -1.627401
2008-07-16 07:20:48 51°15.023 2°51.349 21.1403 0.072154 0.381563 -1.662225
2008-07-16 07:20:53 51°15.026 2°51.321 21.1402 0.072154 0.381563 -1.662225
2008-07-16 07:20:58 51°15.029 2°51.293 21.1564 0.072154 0.381563 -1.627401
2008-07-16 07:21:03 51°15.032 2°51.265 21.1286 0.072154 0.381569 -1.662225
2008-07-16 07:21:08 51°15.036 2°51.237 21.1306 0.072154 0.381569 -1.662225
2008-07-16 07:21:13 51°15.039 2°51.21 21.1518 0.072154 0.381569 -1.662225
2008-07-16 07:21:18 51°15.042 2°51.182 21.1385 0.072154 0.381576 -1.627401
2008-07-16 07:21:23 51°15.046 2°51.154 21.1317 0.072154 0.381576 -1.627401
2008-07-16 07:21:28 51°15.05 2°51.127 21.1405 0.072154 0.381569 -1.662225
2008-07-16 07:21:33 51°15.054 2°51.1 21.1449 0.072154 0.381576 -1.627401
2008-07-16 07:21:38 51°15.059 2°51.072 21.1393 0.072154 0.381563 -1.662225
2008-07-16 07:21:43 51°15.063 2°51.045 21.1468 0.072154 0.381576 -1.662225
2008-07-16 07:21:48 51°15.068 2°51.018 21.136 0.072154 0.381569 -1.662225
2008-07-16 07:21:53 51°15.073 2°50.991 21.1354 0.072154 0.381569 -1.662225
2008-07-16 07:21:58 51°15.079 2°50.964 21.1414 0.072154 0.381569 -1.662225
2008-07-16 07:22:03 51°15.084 2°50.938 21.1557 0.072154 0.381563 -1.627401
2008-07-16 07:22:08 51°15.09 2°50.911 21.1609 0.072154 0.381569 -1.627401
2008-07-16 07:22:13 51°15.095 2°50.884 21.1669 0.072154 0.381576 -1.662225
2008-07-16 07:22:18 51°15.1 2°50.857 21.1561 0.072154 0.381569 -1.662225
2008-07-16 07:22:23 51°15.106 2°50.83 21.1581 0.072154 0.381569 -1.662225
2008-07-16 07:22:28 51°15.111 2°50.803 21.1269 0.072154 0.381582 -1.662225
2008-07-16 07:22:33 51°15.116 2°50.776 21.1537 0.072154 0.381582 -1.662225
2008-07-16 07:22:38 51°15.122 2°50.749 21.1498 0.072154 0.381582 -1.662225
2008-07-16 07:22:43 51°15.127 2°50.722 21.1565 0.072154 0.381582 -1.662225
2008-07-16 07:22:48 51°15.133 2°50.696 21.1535 0.072154 0.381582 -1.662225
2008-07-16 07:22:53 51°15.138 2°50.669 21.1632 0.072154 0.381582 -1.662225
2008-07-16 07:22:58 51°15.144 2°50.642 21.1624 0.072154 0.381588 -1.662225
2008-07-16 07:23:03 51°15.15 2°50.615 21.1381 0.072154 0.381582 -1.627401
2008-07-16 07:23:08 51°15.155 2°50.588 21.1482 0.072154 0.381582 -1.627401
2008-07-16 07:23:13 51°15.161 2°50.561 21.1575 0.072154 0.381576 -1.627401
2008-07-16 07:23:18 51°15.167 2°50.535 21.169 0.072154 0.381576 -1.627401
2008-07-16 07:23:23 51°15.173 2°50.508 21.1708 0.072154 0.381576 -1.627401
2008-07-16 07:23:28 51°15.178 2°50.481 21.1627 0.072154 0.381576 -1.627401
2008-07-16 07:23:33 51°15.184 2°50.454 21.1471 0.072154 0.381576 -1.662225
2008-07-16 07:23:38 51°15.19 2°50.428 21.1625 0.072154 0.381576 -1.627401
2008-07-16 07:23:43 51°15.196 2°50.401 21.1692 0.072154 0.381576 -1.627401
2008-07-16 07:23:48 51°15.201 2°50.374 21.1492 0.072154 0.381588 -1.627401
2008-07-16 07:23:53 51°15.207 2°50.347 21.1519 0.072154 0.381588 -1.627401
2008-07-16 07:23:59 51°15.213 2°50.315 21.1565 0.072154 0.381582 -1.662225
2008-07-16 07:24:03 51°15.217 2°50.294 21.1543 0.072154 0.381588 -1.662225
2008-07-16 07:24:08 51°15.223 2°50.267 21.1545 0.072154 0.381582 -1.627401
2008-07-16 07:24:13 51°15.228 2°50.24 21.1339 0.072154 0.381588 -1.662225
2008-07-16 07:24:18 51°15.233 2°50.213 21.1507 0.072154 0.381588 -1.662225
2008-07-16 07:24:23 51°15.238 2°50.186 21.1459 0.072154 0.381588 -1.662225
2008-07-16 07:24:28 51°15.243 2°50.159 21.1655 0.072154 0.381588 -1.627401
2008-07-16 07:24:33 51°15.249 2°50.133 21.1727 0.072154 0.381588 -1.627401
2008-07-16 07:24:38 51°15.254 2°50.106 21.1708 0.072154 0.381588 -1.662225
2008-07-16 07:24:43 51°15.259 2°50.079 21.1535 0.072154 0.381588 -1.627401
2008-07-16 07:24:48 51°15.265 2°50.052 21.1583 0.072154 0.381588 -1.627401
2008-07-16 07:24:53 51°15.27 2°50.026 21.1635 0.072154 0.381588 -1.627401
2008-07-16 07:24:58 51°15.276 2°49.999 21.1566 0.072154 0.381588 -1.627401
2008-07-16 07:25:03 51°15.282 2°49.973 21.174 0.072154 0.381588 -1.662225
2008-07-16 07:25:08 51°15.288 2°49.946 21.1595 0.072154 0.381588 -1.627401
2008-07-16 07:25:13 51°15.294 2°49.92 21.1702 0.072154 0.381588 -1.627401
2008-07-16 07:25:18 51°15.3 2°49.894 21.1721 0.072154 0.381588 -1.627401
2008-07-16 07:25:23 51°15.306 2°49.868 21.172 0.072154 0.381588 -1.627401
2008-07-16 07:25:28 51°15.312 2°49.841 21.1745 0.072154 0.381588 -1.662225
2008-07-16 07:25:33 51°15.318 2°49.815 21.1544 0.072154 0.381595 -1.627401
2008-07-16 07:25:38 51°15.325 2°49.788 21.1687 0.072154 0.381588 -1.627401
2008-07-16 07:25:43 51°15.331 2°49.762 21.1671 0.072154 0.381595 -1.627401
2008-07-16 07:25:48 51°15.337 2°49.736 21.1612 0.072154 0.381588 -1.662225
2008-07-16 07:25:53 51°15.343 2°49.709 21.1608 0.072154 0.381588 -1.662225
2008-07-16 07:25:58 51°15.349 2°49.683 21.1683 0.072154 0.381595 -1.662225
2008-07-16 07:26:03 51°15.354 2°49.656 21.1707 0.072154 0.381595 -1.662225
2008-07-16 07:26:08 51°15.36 2°49.629 21.1683 0.072154 0.381595 -1.627401
2008-07-16 07:26:13 51°15.366 2°49.603 21.1705 0.072154 0.381601 -1.627401
2008-07-16 07:26:18 51°15.372 2°49.576 21.1518 0.072154 0.381601 -1.662225
2008-07-16 07:26:23 51°15.378 2°49.55 21.1644 0.072154 0.381601 -1.662225
2008-07-16 07:26:28 51°15.384 2°49.523 21.1781 0.072154 0.381601 -1.627401
2008-07-16 07:26:33 51°15.39 2°49.497 21.1648 0.072154 0.381601 -1.627401
2008-07-16 07:26:38 51°15.395 2°49.47 21.1593 0.072154 0.381595 -1.662225
2008-07-16 07:26:43 51°15.401 2°49.444 21.1764 0.072154 0.381601 -1.662225
2008-07-16 07:26:48 51°15.407 2°49.417 21.1809 0.072154 0.381601 -1.662225
2008-07-16 07:26:53 51°15.413 2°49.391 21.1712 0.072154 0.381601 -1.662225
2008-07-16 07:26:58 51°15.419 2°49.364 21.1906 0.072154 0.381601 -1.662225
2008-07-16 07:27:03 51°15.424 2°49.338 21.175 0.072154 0.381608 -1.662225
2008-07-16 07:27:08 51°15.43 2°49.311 21.1844 0.072154 0.381608 -1.627401
2008-07-16 07:27:13 51°15.435 2°49.284 21.1871 0.072154 0.381614 -1.662225
2008-07-16 07:27:18 51°15.44 2°49.257 21.1808 0.072154 0.381608 -1.662225
2008-07-16 07:27:23 51°15.444 2°49.23 21.1833 0.072154 0.381608 -1.662225
2008-07-16 07:27:28 51°15.449 2°49.203 21.1782 0.072154 0.381614 -1.662225
2008-07-16 07:27:33 51°15.454 2°49.176 21.1512 0.072154 0.381608 -1.627401
2008-07-16 07:27:38 51°15.459 2°49.149 21.1719 0.072154 0.381614 -1.662225
2008-07-16 07:27:43 51°15.464 2°49.123 21.1817 0.072154 0.381608 -1.662225
2008-07-16 07:27:48 51°15.469 2°49.096 21.1844 0.072154 0.381614 -1.662225
2008-07-16 07:27:53 51°15.474 2°49.07 21.1727 0.072154 0.381614 -1.662225
2008-07-16 07:27:58 51°15.479 2°49.043 21.1913 0.072154 0.381614 -1.627401
2008-07-16 07:28:03 51°15.484 2°49.016 21.1746 0.072154 0.381621 -1.662225
2008-07-16 07:28:08 51°15.489 2°48.989 21.1644 0.072154 0.381621 -1.662225
2008-07-16 07:28:13 51°15.494 2°48.962 21.1544 0.072154 0.381621 -1.627401
2008-07-16 07:28:18 51°15.499 2°48.936 21.1843 0.072154 0.381621 -1.627401
2008-07-16 07:28:23 51°15.504 2°48.909 21.1954 0.072154 0.381621 -1.627401
2008-07-16 07:28:28 51°15.509 2°48.882 21.1975 0.072154 0.381627 -1.662225
2008-07-16 07:28:33 51°15.513 2°48.855 21.1591 0.072154 0.381627 -1.627401
2008-07-16 07:28:38 51°15.518 2°48.829 21.1614 0.072154 0.381621 -1.627401
2008-07-16 07:28:43 51°15.523 2°48.803 21.1745 0.072154 0.381621 -1.662225
2008-07-16 07:28:48 51°15.528 2°48.776 21.1904 0.072154 0.381621 -1.627401
2008-07-16 07:28:53 51°15.534 2°48.75 21.1717 0.072154 0.381621 -1.627401
2008-07-16 07:28:58 51°15.539 2°48.724 21.1897 0.072154 0.381627 -1.627401
2008-07-16 07:29:03 51°15.544 2°48.697 21.1608 0.072154 0.381627 -1.627401
2008-07-16 07:29:08 51°15.549 2°48.671 21.1703 0.072154 0.381627 -1.662225
2008-07-16 07:29:13 51°15.554 2°48.644 21.09 0.072154 0.381634 -1.627401
2008-07-16 07:29:18 51°15.558 2°48.618 21.2027 0.072154 0.381627 -1.627401
2008-07-16 07:29:23 51°15.563 2°48.591 21.155 0.072154 0.381627 -1.627401
2008-07-16 07:29:28 51°15.568 2°48.565 21.145 0.072154 0.381634 -1.627401
2008-07-16 07:29:33 51°15.572 2°48.538 21.1449 0.072154 0.381634 -1.627401
2008-07-16 07:29:38 51°15.577 2°48.511 21.1509 0.072154 0.381634 -1.592577
2008-07-16 07:29:43 51°15.582 2°48.485 21.1517 0.072154 0.381634 -1.592577
2008-07-16 07:29:48 51°15.587 2°48.458 21.1528 0.072154 0.381634 -1.592577
2008-07-16 07:29:53 51°15.591 2°48.432 21.1557 0.072154 0.381634 -1.592577
2008-07-16 07:29:58 51°15.596 2°48.405 21.1583 0.072154 0.38164 -1.592577
2008-07-16 07:30:03 51°15.601 2°48.378 21.1601 0.072154 0.38164 -1.592577
2008-07-16 07:30:08 51°15.606 2°48.352 21.161 0.072154 0.38164 -1.592577
2008-07-16 07:30:13 51°15.611 2°48.325 21.1639 0.072154 0.38164 -1.592577
2008-07-16 07:30:18 51°15.616 2°48.299 21.1643 0.072154 0.381646 -1.592577
2008-07-16 07:30:23 51°15.621 2°48.272 21.1666 0.072154 0.381646 -1.592577
2008-07-16 07:30:28 51°15.626 2°48.245 21.1683 0.072154 0.38164 -1.592577
2008-07-16 07:30:33 51°15.631 2°48.219 21.1704 0.072154 0.381646 -1.627401
2008-07-16 07:30:38 51°15.637 2°48.192 21.1754 0.072154 0.381646 -1.592577
2008-07-16 07:30:43 51°15.643 2°48.167 21.175 0.072154 0.381646 -1.592577
2008-07-16 07:30:48 51°15.649 2°48.141 21.1757 0.072154 0.381646 -1.592577
2008-07-16 07:30:53 51°15.655 2°48.115 21.1763 0.072154 0.381646 -1.592577
2008-07-16 07:30:58 51°15.662 2°48.089 21.1787 0.072154 0.381653 -1.592577
2008-07-16 07:31:03 51°15.669 2°48.063 21.1793 0.072154 0.381653 -1.592577
2008-07-16 07:31:08 51°15.675 2°48.038 21.1807 0.072154 0.381653 -1.592577
2008-07-16 07:31:13 51°15.682 2°48.012 21.1827 0.072154 0.381659 -1.592577
2008-07-16 07:31:18 51°15.688 2°47.986 21.1837 0.072154 0.381659 -1.592577
2008-07-16 07:31:23 51°15.695 2°47.96 21.1862 0.072154 0.381659 -1.592577
2008-07-16 07:31:28 51°15.701 2°47.934 21.1882 0.072154 0.381659 -1.592577
2008-07-16 07:31:33 51°15.708 2°47.909 21.1902 0.072154 0.381653 -1.592577
2008-07-16 07:31:38 51°15.715 2°47.883 21.1912 0.072154 0.381659 -1.592577
2008-07-16 07:31:43 51°15.722 2°47.857 21.1931 0.072154 0.381659 -1.592577
2008-07-16 07:31:48 51°15.729 2°47.831 21.1942 0.072154 0.381659 -1.592577
2008-07-16 07:31:53 51°15.736 2°47.806 21.1951 0.072154 0.381659 -1.592577
2008-07-16 07:31:58 51°15.743 2°47.78 21.1969 0.072154 0.381659 -1.592577
2008-07-16 07:32:03 51°15.75 2°47.754 21.1982 0.072154 0.381659 -1.592577
2008-07-16 07:32:08 51°15.758 2°47.729 21.1993 0.072154 0.381666 -1.592577
2008-07-16 07:32:13 51°15.765 2°47.703 21.2026 0.072154 0.381672 -1.592577
2008-07-16 07:32:18 51°15.771 2°47.677 21.2042 0.072154 0.381672 -1.592577
2008-07-16 07:32:23 51°15.778 2°47.651 21.2038 0.072154 0.381672 -1.592577
2008-07-16 07:32:28 51°15.784 2°47.625 21.2068 0.072154 0.381672 -1.592577
2008-07-16 07:32:33 51°15.791 2°47.599 21.2065 0.072154 0.381672 -1.592577
2008-07-16 07:32:38 51°15.797 2°47.573 21.2079 0.072154 0.381672 -1.592577
2008-07-16 07:32:43 51°15.804 2°47.547 21.2103 0.072154 0.381672 -1.592577
2008-07-16 07:32:48 51°15.81 2°47.52 21.2095 0.072154 0.381672 -1.592577
2008-07-16 07:32:53 51°15.817 2°47.495 21.2117 0.072154 0.381672 -1.592577
2008-07-16 07:32:58 51°15.823 2°47.468 21.2149 0.072154 0.381679 -1.592577
2008-07-16 07:33:03 51°15.83 2°47.442 21.2167 0.072154 0.381679 -1.592577
2008-07-16 07:33:08 51°15.836 2°47.416 21.2181 0.072154 0.381679 -1.627401
2008-07-16 07:33:13 51°15.843 2°47.39 21.2196 0.072154 0.381679 -1.592577
2008-07-16 07:33:18 51°15.849 2°47.364 21.2216 0.072154 0.381685 -1.592577
2008-07-16 07:33:23 51°15.856 2°47.337 21.2252 0.072154 0.381685 -1.592577
2008-07-16 07:33:28 51°15.862 2°47.311 21.2256 0.072154 0.381685 -1.592577
2008-07-16 07:33:33 51°15.868 2°47.285 21.228 0.072154 0.381685 -1.592577
2008-07-16 07:33:38 51°15.875 2°47.258 21.2294 0.072154 0.381685 -1.592577
2008-07-16 07:33:43 51°15.881 2°47.232 21.2303 0.072154 0.381692 -1.592577
2008-07-16 07:33:48 51°15.888 2°47.206 21.2304 0.072154 0.381692 -1.592577
2008-07-16 07:33:53 51°15.894 2°47.179 21.2338 0.072154 0.381692 -1.592577
2008-07-16 07:33:58 51°15.9 2°47.153 21.233 0.072154 0.381692 -1.592577
2008-07-16 07:34:03 51°15.906 2°47.127 21.2368 0.072154 0.381692 -1.592577
2008-07-16 07:34:08 51°15.912 2°47.1 21.2353 0.072154 0.381698 -1.592577
2008-07-16 07:34:13 51°15.919 2°47.074 21.2386 0.072154 0.381698 -1.592577
2008-07-16 07:34:18 51°15.925 2°47.047 21.2356 0.072154 0.381698 -1.627401
2008-07-16 07:34:23 51°15.931 2°47.021 21.2418 0.072154 0.381698 -1.627401
2008-07-16 07:34:28 51°15.938 2°46.995 21.242 0.072154 0.381698 -1.592577
2008-07-16 07:34:33 51°15.944 2°46.968 21.2429 0.072154 0.381705 -1.592577
2008-07-16 07:34:38 51°15.95 2°46.942 21.2463 0.072154 0.381705 -1.592577
2008-07-16 07:34:43 51°15.956 2°46.915 21.2474 0.072154 0.381711 -1.592577
2008-07-16 07:34:48 51°15.961 2°46.889 21.2473 0.072154 0.381705 -1.592577
2008-07-16 07:34:53 51°15.967 2°46.862 21.2485 0.072154 0.381705 -1.592577
2008-07-16 07:34:58 51°15.973 2°46.835 21.2495 0.072154 0.381705 -1.592577
2008-07-16 07:35:03 51°15.979 2°46.809 21.2511 0.072154 0.381705 -1.592577
2008-07-16 07:35:08 51°15.985 2°46.783 21.2554 0.072154 0.381705 -1.592577
2008-07-16 07:35:13 51°15.991 2°46.756 21.2579 0.072154 0.381711 -1.592577
2008-07-16 07:35:18 51°15.996 2°46.73 21.2578 0.072154 0.381711 -1.592577
2008-07-16 07:35:23 51°16.002 2°46.703 21.2584 0.072154 0.381711 -1.592577
2008-07-16 07:35:28 51°16.008 2°46.677 21.2559 0.072154 0.381711 -1.592577
2008-07-16 07:35:33 51°16.014 2°46.651 21.2624 0.072154 0.381711 -1.592577
2008-07-16 07:35:38 51°16.02 2°46.624 21.261 0.072154 0.381717 -1.592577
2008-07-16 07:35:43 51°16.026 2°46.598 21.2635 0.072154 0.381717 -1.592577
2008-07-16 07:35:48 51°16.032 2°46.572 21.2795 0.072154 0.381717 -1.453281
2008-07-16 07:35:53 51°16.038 2°46.546 21.1729 0.072154 0.381717 -1.453281
2008-07-16 07:35:58 51°16.044 2°46.52 21.1854 0.072154 0.381717 -1.592577
2008-07-16 07:36:03 51°16.051 2°46.495 21.1956 0.072154 0.381717 -1.627401
2008-07-16 07:36:08 51°16.057 2°46.469 21.1993 0.072154 0.381724 -1.662225
2008-07-16 07:36:13 51°16.064 2°46.443 21.2056 0.072154 0.381724 -1.662225
2008-07-16 07:36:18 51°16.071 2°46.418 21.2139 0.072154 0.381724 -1.662225
2008-07-16 07:36:23 51°16.077 2°46.392 21.2121 0.072154 0.381724 -1.662225
2008-07-16 07:36:28 51°16.083 2°46.367 21.2141 0.072154 0.381724 -1.662225
2008-07-16 07:36:33 51°16.09 2°46.341 21.2235 0.072154 0.381724 -1.662225
2008-07-16 07:36:38 51°16.096 2°46.316 21.2188 0.072154 0.38173 -1.662225
2008-07-16 07:36:43 51°16.103 2°46.29 21.2252 0.072154 0.38173 -1.662225
2008-07-16 07:36:48 51°16.109 2°46.265 21.2228 0.072154 0.38173 -1.662225
2008-07-16 07:36:53 51°16.116 2°46.239 21.2249 0.072154 0.38173 -1.662225
2008-07-16 07:36:58 51°16.122 2°46.214 21.2249 0.072154 0.38173 -1.662225
2008-07-16 07:37:03 51°16.129 2°46.188 21.2249 0.072154 0.38173 -1.662225
2008-07-16 07:37:08 51°16.136 2°46.163 21.2292 0.072154 0.38173 -1.662225
2008-07-16 07:37:13 51°16.142 2°46.137 21.227 0.072154 0.381737 -1.662225
2008-07-16 07:37:18 51°16.149 2°46.112 21.2313 0.072154 0.381737 -1.662225
2008-07-16 07:37:23 51°16.155 2°46.087 21.23 0.072154 0.381737 -1.662225
2008-07-16 07:37:28 51°16.162 2°46.061 21.2312 0.072154 0.381737 -1.662225
2008-07-16 07:37:33 51°16.168 2°46.036 21.2333 0.072154 0.381737 -1.662225
2008-07-16 07:37:38 51°16.175 2°46.011 21.2328 0.072154 0.381743 -1.662225
2008-07-16 07:37:43 51°16.181 2°45.985 21.2339 0.072154 0.381743 -1.662225
2008-07-16 07:37:48 51°16.187 2°45.96 21.2372 0.072154 0.381743 -1.662225
2008-07-16 07:37:53 51°16.194 2°45.935 21.2379 0.072154 0.381743 -1.662225
2008-07-16 07:37:58 51°16.2 2°45.909 21.2384 0.072051 0.381175 -1.662225
2008-07-16 07:38:03 51°16.207 2°45.884 21.2379 0.072154 0.381743 -1.662225
2008-07-16 07:38:08 51°16.214 2°45.859 21.2388 0.072051 0.381181 -1.662225
2008-07-16 07:38:13 51°16.22 2°45.834 21.2458 0.072154 0.381743 -1.662225
2008-07-16 07:38:18 51°16.227 2°45.809 21.2418 0.072051 0.381188 -1.662225
2008-07-16 07:38:23 51°16.233 2°45.784 21.246 0.072051 0.381188 -1.662225
2008-07-16 07:38:28 51°16.239 2°45.759 21.2437 0.072154 0.38175 -1.662225
2008-07-16 07:38:33 51°16.246 2°45.734 21.2434 0.072051 0.381194 -1.662225
2008-07-16 07:38:38 51°16.252 2°45.708 21.2458 0.072051 0.381188 -1.662225
2008-07-16 07:38:43 51°16.259 2°45.683 21.2463 0.072051 0.381194 -1.662225
2008-07-16 07:38:48 51°16.265 2°45.658 21.2482 0.072051 0.381194 -1.662225
2008-07-16 07:38:53 51°16.271 2°45.633 21.2463 0.072051 0.381194 -1.662225
2008-07-16 07:38:58 51°16.278 2°45.608 21.249 0.072051 0.381194 -1.662225
2008-07-16 07:39:03 51°16.284 2°45.582 21.2509 0.072051 0.381194 -1.662225
2008-07-16 07:39:08 51°16.29 2°45.557 21.2504 0.072051 0.381194 -1.662225
2008-07-16 07:39:13 51°16.297 2°45.532 21.2541 0.072051 0.381194 -1.662225
2008-07-16 07:39:18 51°16.304 2°45.507 21.2556 0.072051 0.381194 -1.662225
2008-07-16 07:39:23 51°16.311 2°45.483 21.255 0.072051 0.381194 -1.662225
2008-07-16 07:39:28 51°16.317 2°45.458 21.2557 0.072051 0.381201 -1.662225
2008-07-16 07:39:33 51°16.325 2°45.434 21.2541 0.072051 0.381201 -1.662225
2008-07-16 07:39:38 51°16.332 2°45.409 21.257 0.072051 0.381201 -1.662225
2008-07-16 07:39:43 51°16.339 2°45.384 21.2572 0.072051 0.381207 -1.662225
2008-07-16 07:39:48 51°16.346 2°45.36 21.2579 0.072051 0.381201 -1.662225
2008-07-16 07:39:53 51°16.353 2°45.335 21.2587 0.072051 0.381201 -1.662225
2008-07-16 07:39:58 51°16.36 2°45.31 21.2588 0.072051 0.381207 -1.662225
2008-07-16 07:40:03 51°16.367 2°45.286 21.2596 0.072051 0.381207 -1.662225
2008-07-16 07:40:08 51°16.374 2°45.261 21.2603 0.072051 0.381207 -1.662225
2008-07-16 07:40:13 51°16.381 2°45.236 21.2602 0.072051 0.381213 -1.662225
2008-07-16 07:40:18 51°16.388 2°45.212 21.2643 0.072051 0.381213 -1.662225
2008-07-16 07:40:23 51°16.395 2°45.187 21.2626 0.072051 0.381213 -1.662225
2008-07-16 07:40:28 51°16.403 2°45.163 21.2646 0.072051 0.381213 -1.662225
2008-07-16 07:40:33 51°16.41 2°45.138 21.2691 0.072051 0.381213 -1.662225
2008-07-16 07:40:38 51°16.417 2°45.113 21.2669 0.072051 0.381213 -1.662225
2008-07-16 07:40:43 51°16.425 2°45.089 21.2667 0.072051 0.381213 -1.662225
2008-07-16 07:40:48 51°16.432 2°45.065 21.2672 0.072051 0.381213 -1.662225
2008-07-16 07:40:53 51°16.44 2°45.041 21.2672 0.072051 0.381213 -1.662225
2008-07-16 07:40:58 51°16.447 2°45.016 21.269 0.072051 0.38122 -1.662225
2008-07-16 07:41:03 51°16.455 2°44.992 21.2692 0.072051 0.38122 -1.662225
2008-07-16 07:41:08 51°16.463 2°44.968 21.2696 0.072051 0.38122 -1.662225
2008-07-16 07:41:13 51°16.47 2°44.944 21.2705 0.072051 0.381226 -1.662225
2008-07-16 07:41:18 51°16.478 2°44.92 21.2708 0.072051 0.381226 -1.662225
2008-07-16 07:41:23 51°16.485 2°44.895 21.2709 0.072051 0.381226 -1.662225
2008-07-16 07:41:28 51°16.493 2°44.871 21.2732 0.072051 0.381233 -1.662225
2008-07-16 07:41:33 51°16.5 2°44.847 21.2732 0.072051 0.381226 -1.662225
2008-07-16 07:41:38 51°16.508 2°44.823 21.2762 0.072051 0.381226 -1.662225
2008-07-16 07:41:43 51°16.517 2°44.8 21.2751 0.072051 0.381226 -1.662225
2008-07-16 07:41:48 51°16.525 2°44.777 21.2756 0.072051 0.381233 -1.662225
2008-07-16 07:41:53 51°16.534 2°44.753 21.2774 0.072051 0.381233 -1.662225
2008-07-16 07:41:58 51°16.542 2°44.73 21.2789 0.072051 0.381233 -1.662225
2008-07-16 07:42:03 51°16.551 2°44.706 21.2784 0.072051 0.381233 -1.662225
2008-07-16 07:42:08 51°16.559 2°44.683 21.2792 0.072051 0.381233 -1.627401
2008-07-16 07:42:13 51°16.568 2°44.659 21.2813 0.072051 0.381233 -1.662225
2008-07-16 07:42:18 51°16.576 2°44.636 21.2812 0.072051 0.381239 -1.662225
2008-07-16 07:42:23 51°16.585 2°44.612 21.282 0.072051 0.381239 -1.662225
2008-07-16 07:42:28 51°16.593 2°44.589 21.2845 0.072051 0.381239 -1.662225
2008-07-16 07:42:33 51°16.602 2°44.565 21.2851 0.072051 0.381239 -1.662225
2008-07-16 07:42:38 51°16.611 2°44.543 21.2837 0.072051 0.381239 -1.662225
2008-07-16 07:42:43 51°16.62 2°44.52 21.2876 0.072051 0.381239 -1.662225
2008-07-16 07:42:48 51°16.63 2°44.498 21.2854 0.072051 0.381246 -1.662225
2008-07-16 07:42:53 51°16.639 2°44.475 21.2877 0.072051 0.381246 -1.662225
2008-07-16 07:42:58 51°16.648 2°44.452 21.2874 0.072051 0.381246 -1.662225
2008-07-16 07:43:03 51°16.658 2°44.43 21.2878 0.072051 0.381246 -1.662225
2008-07-16 07:43:08 51°16.667 2°44.407 21.2888 0.072051 0.381246 -1.662225
2008-07-16 07:43:13 51°16.677 2°44.385 21.2891 0.072051 0.381252 -1.662225
2008-07-16 07:43:18 51°16.687 2°44.363 21.2895 0.072051 0.381252 -1.662225
2008-07-16 07:43:23 51°16.696 2°44.34 21.2894 0.072051 0.381252 -1.662225
2008-07-16 07:43:28 51°16.706 2°44.317 21.2901 0.072051 0.381252 -1.662225
2008-07-16 07:43:33 51°16.715 2°44.295 21.2903 0.072051 0.381252 -1.662225
2008-07-16 07:43:38 51°16.725 2°44.272 21.2917 0.072051 0.381252 -1.662225
2008-07-16 07:43:43 51°16.734 2°44.25 21.2916 0.072051 0.381259 -1.662225
2008-07-16 07:43:48 51°16.744 2°44.227 21.2928 0.072051 0.381259 -1.662225
2008-07-16 07:43:53 51°16.753 2°44.204 21.2936 0.072051 0.381259 -1.662225
2008-07-16 07:43:58 51°16.763 2°44.182 21.2938 0.072051 0.381259 -1.662225
2008-07-16 07:44:03 51°16.772 2°44.159 21.295 0.072051 0.381259 -1.662225
2008-07-16 07:44:08 51°16.782 2°44.136 21.2964 0.072051 0.381265 -1.662225
2008-07-16 07:44:13 51°16.791 2°44.114 21.2978 0.072051 0.381265 -1.662225
2008-07-16 07:44:18 51°16.8 2°44.091 21.2983 0.072051 0.381265 -1.662225
2008-07-16 07:44:23 51°16.81 2°44.068 21.299 0.072051 0.381265 -1.662225
2008-07-16 07:44:28 51°16.82 2°44.046 21.2995 0.072051 0.381259 -1.662225
2008-07-16 07:44:33 51°16.829 2°44.023 21.3011 0.072051 0.381265 -1.662225
2008-07-16 07:44:38 51°16.839 2°44.001 21.3018 0.072051 0.381259 -1.662225
2008-07-16 07:44:43 51°16.849 2°43.979 21.3018 0.072051 0.381265 -1.662225
2008-07-16 07:44:48 51°16.86 2°43.957 21.3031 0.072051 0.381271 -1.662225
2008-07-16 07:44:53 51°16.87 2°43.935 21.3036 0.072051 0.381271 -1.662225
2008-07-16 07:44:58 51°16.88 2°43.913 21.3037 0.072051 0.381271 -1.662225
2008-07-16 07:45:03 51°16.89 2°43.891 21.3049 0.072051 0.381271 -1.662225
2008-07-16 07:45:08 51°16.899 2°43.869 21.3068 0.072051 0.381278 -1.662225
2008-07-16 07:45:13 51°16.909 2°43.846 21.3074 0.072051 0.381278 -1.662225
2008-07-16 07:45:18 51°16.919 2°43.823 21.3089 0.072051 0.381278 -1.662225
2008-07-16 07:45:23 51°16.928 2°43.801 21.3096 0.072051 0.381278 -1.662225
2008-07-16 07:45:28 51°16.938 2°43.778 21.3098 0.072051 0.381278 -1.662225
2008-07-16 07:45:33 51°16.947 2°43.755 21.3105 0.072051 0.381278 -1.662225
2008-07-16 07:45:38 51°16.957 2°43.732 21.3111 0.072051 0.381278 -1.662225
2008-07-16 07:45:43 51°16.966 2°43.709 21.3122 0.072051 0.381284 -1.662225
2008-07-16 07:45:48 51°16.975 2°43.686 21.3129 0.072051 0.381284 -1.662225
2008-07-16 07:45:53 51°16.984 2°43.662 21.3139 0.072051 0.381284 -1.662225
2008-07-16 07:45:58 51°16.993 2°43.639 21.3155 0.072051 0.381284 -1.662225
2008-07-16 07:46:03 51°17.002 2°43.615 21.3161 0.072051 0.381284 -1.627401
2008-07-16 07:46:08 51°17.01 2°43.591 21.3168 0.072051 0.381284 -1.662225
2008-07-16 07:46:13 51°17.019 2°43.567 21.3181 0.072051 0.381284 -1.662225
2008-07-16 07:46:18 51°17.028 2°43.543 21.3193 0.072051 0.381278 -1.627401
2008-07-16 07:46:23 51°17.037 2°43.52 21.3202 0.072051 0.381278 -1.627401
2008-07-16 07:46:28 51°17.046 2°43.496 21.3204 0.072051 0.381278 -1.662225
2008-07-16 07:46:33 51°17.055 2°43.473 21.3215 0.072051 0.381284 -1.662225
2008-07-16 07:46:38 51°17.064 2°43.45 21.3226 0.072051 0.381284 -1.662225
2008-07-16 07:46:43 51°17.074 2°43.427 21.3236 0.072051 0.381291 -1.662225
2008-07-16 07:46:48 51°17.083 2°43.404 21.3243 0.072051 0.381297 -1.662225
2008-07-16 07:46:53 51°17.093 2°43.382 21.3253 0.072051 0.381297 -1.662225
2008-07-16 07:46:58 51°17.103 2°43.359 21.3252 0.072051 0.381297 -1.662225
2008-07-16 07:47:03 51°17.112 2°43.336 21.3266 0.072051 0.381304 -1.662225
2008-07-16 07:47:08 51°17.122 2°43.313 21.3271 0.072051 0.381304 -1.662225
2008-07-16 07:47:13 51°17.132 2°43.291 21.3276 0.072051 0.381304 -1.662225
2008-07-16 07:47:18 51°17.142 2°43.268 21.3277 0.072051 0.381304 -1.662225
2008-07-16 07:47:23 51°17.152 2°43.246 21.3288 0.072051 0.381304 -1.662225
2008-07-16 07:47:28 51°17.162 2°43.224 21.3295 0.072051 0.381304 -1.662225
2008-07-16 07:47:33 51°17.173 2°43.203 21.3313 0.072051 0.381297 -1.662225
2008-07-16 07:47:38 51°17.184 2°43.181 21.3314 0.072051 0.381304 -1.662225
2008-07-16 07:47:43 51°17.194 2°43.159 21.3319 0.072051 0.381304 -1.662225
2008-07-16 07:47:48 51°17.205 2°43.137 21.3338 0.072051 0.381304 -1.662225
2008-07-16 07:47:53 51°17.215 2°43.115 21.3344 0.072051 0.381304 -1.662225
2008-07-16 07:47:58 51°17.226 2°43.093 21.3351 0.072051 0.381304 -1.662225
2008-07-16 07:48:03 51°17.236 2°43.071 21.3362 0.072051 0.38131 -1.662225
2008-07-16 07:48:08 51°17.247 2°43.05 21.3357 0.072051 0.381304 -1.662225
2008-07-16 07:48:13 51°17.258 2°43.028 21.3367 0.072051 0.38131 -1.662225
2008-07-16 07:48:18 51°17.268 2°43.006 21.3383 0.072051 0.38131 -1.662225
2008-07-16 07:48:23 51°17.279 2°42.984 21.3384 0.072051 0.38131 -1.662225
2008-07-16 07:48:28 51°17.289 2°42.963 21.3391 0.072051 0.38131 -1.662225
2008-07-16 07:48:33 51°17.3 2°42.941 21.3399 0.072051 0.381317 -1.662225
2008-07-16 07:48:38 51°17.31 2°42.919 21.3408 0.072051 0.38131 -1.662225
2008-07-16 07:48:43 51°17.321 2°42.898 21.342 0.072051 0.381317 -1.662225
2008-07-16 07:48:48 51°17.331 2°42.876 21.3419 0.072051 0.38131 -1.662225
2008-07-16 07:48:53 51°17.342 2°42.854 21.3431 0.072051 0.38131 -1.662225
2008-07-16 07:48:58 51°17.352 2°42.832 21.343 0.072051 0.381317 -1.662225
2008-07-16 07:49:03 51°17.363 2°42.81 21.3445 0.072051 0.381317 -1.662225
2008-07-16 07:49:08 51°17.373 2°42.788 21.3448 0.072051 0.381323 -1.662225
2008-07-16 07:49:13 51°17.384 2°42.766 21.3467 0.072051 0.381317 -1.662225
2008-07-16 07:49:18 51°17.394 2°42.744 21.3452 0.072051 0.381323 -1.662225
2008-07-16 07:49:23 51°17.405 2°42.721 21.3477 0.072051 0.381323 -1.662225
2008-07-16 07:49:28 51°17.416 2°42.699 21.3476 0.072051 0.381323 -1.662225
2008-07-16 07:49:33 51°17.426 2°42.676 21.3475 0.072051 0.381323 -1.662225
2008-07-16 07:49:38 51°17.436 2°42.654 21.3491 0.072051 0.381323 -1.662225
2008-07-16 07:49:43 51°17.447 2°42.631 21.3506 0.072051 0.381323 -1.662225
2008-07-16 07:49:48 51°17.457 2°42.608 21.351 0.072051 0.381329 -1.662225
2008-07-16 07:49:53 51°17.467 2°42.585 21.3525 0.072051 0.381329 -1.662225
2008-07-16 07:49:58 51°17.477 2°42.562 21.3532 0.072051 0.381329 -1.662225
2008-07-16 07:50:03 51°17.487 2°42.539 21.3549 0.072051 0.381329 -1.662225
2008-07-16 07:50:08 51°17.496 2°42.515 21.355 0.072051 0.381336 -1.662225
2008-07-16 07:50:13 51°17.506 2°42.492 21.3561 0.072051 0.381336 -1.662225
2008-07-16 07:50:18 51°17.516 2°42.469 21.3554 0.072051 0.381336 -1.662225
2008-07-16 07:50:23 51°17.526 2°42.446 21.3573 0.072051 0.381336 -1.662225
2008-07-16 07:50:28 51°17.535 2°42.422 21.357 0.072051 0.381336 -1.662225
2008-07-16 07:50:33 51°17.545 2°42.399 21.3583 0.072051 0.381329 -1.662225
2008-07-16 07:50:38 51°17.555 2°42.376 21.3586 0.072051 0.381336 -1.662225
2008-07-16 07:50:43 51°17.565 2°42.353 21.3589 0.072051 0.381336 -1.662225
2008-07-16 07:50:48 51°17.574 2°42.33 21.3589 0.072051 0.381336 -1.662225
2008-07-16 07:50:53 51°17.584 2°42.307 21.3612 0.072051 0.381336 -1.662225
2008-07-16 07:50:58 51°17.594 2°42.283 21.361 0.072051 0.381342 -1.662225
2008-07-16 07:51:03 51°17.603 2°42.26 21.362 0.072051 0.381342 -1.662225
2008-07-16 07:51:08 51°17.613 2°42.237 21.3624 0.072051 0.381342 -1.662225
2008-07-16 07:51:13 51°17.623 2°42.214 21.3628 0.072051 0.381342 -1.662225
2008-07-16 07:51:18 51°17.632 2°42.19 21.3654 0.072051 0.381342 -1.662225
2008-07-16 07:51:23 51°17.642 2°42.167 21.3654 0.072051 0.381342 -1.662225
2008-07-16 07:51:28 51°17.652 2°42.144 21.3661 0.072051 0.381349 -1.662225
2008-07-16 07:51:33 51°17.661 2°42.12 21.3676 0.072051 0.381342 -1.662225
2008-07-16 07:51:38 51°17.671 2°42.097 21.3673 0.072051 0.381342 -1.662225
2008-07-16 07:51:43 51°17.68 2°42.073 21.3662 0.072051 0.381349 -1.662225
2008-07-16 07:51:48 51°17.69 2°42.05 21.3662 0.072051 0.381349 -1.662225
2008-07-16 07:51:53 51°17.7 2°42.027 21.3679 0.072051 0.381349 -1.662225
2008-07-16 07:51:58 51°17.71 2°42.004 21.368 0.072051 0.381349 -1.662225
2008-07-16 07:52:03 51°17.72 2°41.982 21.3681 0.072051 0.381349 -1.662225
2008-07-16 07:52:08 51°17.73 2°41.959 21.3679 0.072051 0.381349 -1.662225
2008-07-16 07:52:13 51°17.742 2°41.938 21.3711 0.072051 0.381349 -1.662225
2008-07-16 07:52:18 51°17.753 2°41.917 21.3709 0.072051 0.381355 -1.662225
2008-07-16 07:52:23 51°17.765 2°41.897 21.3723 0.072051 0.381355 -1.662225
2008-07-16 07:52:28 51°17.776 2°41.877 21.3728 0.072051 0.381355 -1.662225
2008-07-16 07:52:33 51°17.788 2°41.857 21.3744 0.072051 0.381362 -1.662225
2008-07-16 07:52:38 51°17.8 2°41.838 21.3737 0.072051 0.381362 -1.662225
2008-07-16 07:52:43 51°17.813 2°41.819 21.3755 0.072051 0.381362 -1.662225
2008-07-16 07:52:48 51°17.825 2°41.8 21.3769 0.072051 0.381368 -1.662225
2008-07-16 07:52:53 51°17.837 2°41.781 21.3777 0.072051 0.381368 -1.662225
2008-07-16 07:52:58 51°17.85 2°41.763 21.3787 0.072051 0.381368 -1.662225
2008-07-16 07:53:03 51°17.862 2°41.745 21.379 0.072051 0.381375 -1.662225
2008-07-16 07:53:08 51°17.875 2°41.727 21.3803 0.072051 0.381368 -1.662225
2008-07-16 07:53:13 51°17.887 2°41.709 21.3797 0.072051 0.381375 -1.662225
2008-07-16 07:53:18 51°17.9 2°41.69 21.3813 0.072051 0.381375 -1.662225
2008-07-16 07:53:23 51°17.912 2°41.672 21.3807 0.072051 0.381375 -1.662225
2008-07-16 07:53:28 51°17.925 2°41.653 21.3838 0.072051 0.381375 -1.662225
2008-07-16 07:53:33 51°17.937 2°41.634 21.3843 0.072051 0.381375 -1.662225
2008-07-16 07:53:38 51°17.949 2°41.615 21.3834 0.072051 0.381381 -1.662225
2008-07-16 07:53:43 51°17.961 2°41.597 21.3851 0.072051 0.381375 -1.662225
2008-07-16 07:53:48 51°17.973 2°41.577 21.3846 0.072051 0.381381 -1.662225
2008-07-16 07:53:53 51°17.985 2°41.557 21.3861 0.072051 0.381381 -1.662225
2008-07-16 07:53:58 51°17.997 2°41.538 21.3869 0.072051 0.381375 -1.662225
2008-07-16 07:54:03 51°18.008 2°41.518 21.3867 0.072051 0.381381 -1.662225
2008-07-16 07:54:08 51°18.02 2°41.498 21.3888 0.072051 0.381381 -1.662225
2008-07-16 07:54:13 51°18.032 2°41.478 21.3879 0.072051 0.381381 -1.662225
2008-07-16 07:54:18 51°18.043 2°41.459 21.3883 0.072051 0.381381 -1.662225
2008-07-16 07:54:23 51°18.055 2°41.439 21.3916 0.072051 0.381381 -1.662225
2008-07-16 07:54:28 51°18.067 2°41.42 21.3909 0.072051 0.381381 -1.662225
2008-07-16 07:54:33 51°18.078 2°41.4 21.3884 0.072051 0.381387 -1.662225
2008-07-16 07:54:38 51°18.09 2°41.38 21.3931 0.072051 0.381387 -1.662225
2008-07-16 07:54:43 51°18.102 2°41.36 21.3958 0.072051 0.381387 -1.662225
2008-07-16 07:54:48 51°18.113 2°41.339 21.3929 0.072051 0.381394 -1.662225
2008-07-16 07:54:53 51°18.124 2°41.319 21.3936 0.072051 0.381394 -1.662225
2008-07-16 07:54:58 51°18.135 2°41.297 21.3937 0.072051 0.3814 -1.662225
2008-07-16 07:55:03 51°18.145 2°41.276 21.3963 0.072051 0.381394 -1.662225
2008-07-16 07:55:08 51°18.156 2°41.254 21.3972 0.072051 0.381394 -1.662225
2008-07-16 07:55:13 51°18.166 2°41.232 21.3967 0.072051 0.381394 -1.662225
2008-07-16 07:55:18 51°18.177 2°41.211 21.3975 0.072051 0.381394 -1.662225
2008-07-16 07:55:23 51°18.187 2°41.188 21.3992 0.072051 0.381394 -1.662225
2008-07-16 07:55:28 51°18.198 2°41.166 21.4007 0.072051 0.381387 -1.662225
2008-07-16 07:55:33 51°18.208 2°41.144 21.4001 0.072051 0.381394 -1.662225
2008-07-16 07:55:38 51°18.218 2°41.122 21.4014 0.072051 0.3814 -1.662225
2008-07-16 07:55:43 51°18.228 2°41.1 21.4023 0.072051 0.381407 -1.662225
2008-07-16 07:55:48 51°18.238 2°41.077 21.4004 0.072051 0.381407 -1.662225
2008-07-16 07:55:53 51°18.247 2°41.054 21.4026 0.072051 0.381407 -1.662225
2008-07-16 07:55:59 51°18.259 2°41.027 21.4021 0.072051 0.381407 -1.662225
2008-07-16 07:56:03 51°18.267 2°41.009 21.4 0.072051 0.381407 -1.662225
2008-07-16 07:56:08 51°18.277 2°40.986 21.4055 0.072051 0.381407 -1.662225
2008-07-16 07:56:13 51°18.286 2°40.963 21.4028 0.072051 0.381407 -1.662225
2008-07-16 07:56:18 51°18.296 2°40.941 21.4044 0.072051 0.381407 -1.662225
2008-07-16 07:56:23 51°18.306 2°40.918 21.4049 0.072051 0.381407 -1.662225
2008-07-16 07:56:28 51°18.316 2°40.895 21.404 0.072051 0.381407 -1.662225
2008-07-16 07:56:33 51°18.327 2°40.873 21.4081 0.072051 0.381407 -1.662225
2008-07-16 07:56:38 51°18.337 2°40.851 21.4055 0.072051 0.381413 -1.662225
2008-07-16 07:56:43 51°18.348 2°40.83 21.4117 0.072051 0.381413 -1.662225
2008-07-16 07:56:48 51°18.359 2°40.808 21.4077 0.072051 0.38142 -1.662225
2008-07-16 07:56:53 51°18.37 2°40.786 21.4106 0.072051 0.38142 -1.662225
2008-07-16 07:56:58 51°18.381 2°40.764 21.4124 0.072051 0.38142 -1.662225
2008-07-16 07:57:03 51°18.392 2°40.743 21.411 0.072051 0.38142 -1.662225
2008-07-16 07:57:08 51°18.402 2°40.721 21.4107 0.072051 0.38142 -1.662225
2008-07-16 07:57:13 51°18.414 2°40.7 21.4115 0.072051 0.381426 -1.662225
2008-07-16 07:57:18 51°18.424 2°40.678 21.412 0.072051 0.381426 -1.662225
2008-07-16 07:57:23 51°18.435 2°40.657 21.4139 0.072051 0.381426 -1.662225
2008-07-16 07:57:28 51°18.446 2°40.635 21.4125 0.072051 0.381426 -1.662225
2008-07-16 07:57:33 51°18.457 2°40.614 21.4164 0.072051 0.381426 -1.662225
2008-07-16 07:57:38 51°18.468 2°40.592 21.4149 0.072051 0.381426 -1.662225
2008-07-16 07:57:43 51°18.478 2°40.57 21.4146 0.072051 0.381426 -1.662225
2008-07-16 07:57:48 51°18.489 2°40.548 21.4154 0.072051 0.381426 -1.662225
2008-07-16 07:57:53 51°18.5 2°40.527 21.4169 0.072051 0.381426 -1.662225
2008-07-16 07:57:59 51°18.513 2°40.501 21.4178 0.072051 0.381433 -1.662225
2008-07-16 07:58:03 51°18.522 2°40.484 21.4184 0.072051 0.381433 -1.662225
2008-07-16 07:58:08 51°18.533 2°40.462 21.42 0.072051 0.381433 -1.662225
2008-07-16 07:58:13 51°18.543 2°40.44 21.4192 0.072051 0.381439 -1.662225
2008-07-16 07:58:18 51°18.554 2°40.418 21.4193 0.072051 0.381439 -1.662225
2008-07-16 07:58:23 51°18.564 2°40.395 21.4213 0.072051 0.381439 -1.662225
2008-07-16 07:58:28 51°18.574 2°40.373 21.4205 0.072051 0.381446 -1.662225
2008-07-16 07:58:33 51°18.585 2°40.35 21.4227 0.072051 0.381439 -1.662225
2008-07-16 07:58:38 51°18.595 2°40.327 21.4192 0.072051 0.381446 -1.662225
2008-07-16 07:58:43 51°18.606 2°40.304 21.4211 0.072051 0.381446 -1.662225
2008-07-16 07:58:48 51°18.616 2°40.281 21.4229 0.072051 0.381446 -1.662225
2008-07-16 07:58:53 51°18.626 2°40.259 21.4256 0.072051 0.381446 -1.662225
2008-07-16 07:58:58 51°18.636 2°40.236 21.4269 0.072051 0.381446 -1.662225
2008-07-16 07:59:03 51°18.646 2°40.213 21.4254 0.072051 0.381452 -1.662225
2008-07-16 07:59:08 51°18.657 2°40.191 21.4259 0.072051 0.381452 -1.662225
2008-07-16 07:59:13 51°18.667 2°40.168 21.4265 0.072051 0.381446 -1.662225
2008-07-16 07:59:18 51°18.677 2°40.146 21.428 0.072051 0.381452 -1.662225
2008-07-16 07:59:23 51°18.688 2°40.123 21.4279 0.072051 0.381452 -1.662225
2008-07-16 07:59:28 51°18.698 2°40.101 21.4297 0.072051 0.381452 -1.662225
2008-07-16 07:59:33 51°18.708 2°40.079 21.4251 0.072051 0.381458 -1.662225
2008-07-16 07:59:38 51°18.719 2°40.056 21.4313 0.072051 0.381458 -1.662225
2008-07-16 07:59:43 51°18.729 2°40.034 21.4303 0.072051 0.381458 -1.662225
2008-07-16 07:59:48 51°18.74 2°40.012 21.4291 0.072051 0.381458 -1.662225
2008-07-16 07:59:53 51°18.75 2°39.99 21.4306 0.072051 0.381458 -1.662225
2008-07-16 07:59:58 51°18.761 2°39.968 21.4306 0.072051 0.381458 -1.662225
2008-07-16 08:00:03 51°18.771 2°39.946 21.4309 0.072051 0.381458 -1.662225
2008-07-16 08:00:08 51°18.782 2°39.924 21.4343 0.072051 0.381465 -1.662225
2008-07-16 08:00:13 51°18.792 2°39.902 21.4387 0.072051 0.381465 -1.662225
2008-07-16 08:00:18 51°18.803 2°39.88 21.4335 0.072051 0.381465 -1.662225
2008-07-16 08:00:23 51°18.813 2°39.858 21.434 0.072051 0.381465 -1.662225
2008-07-16 08:00:28 51°18.824 2°39.836 21.4379 0.072051 0.381458 -1.662225
2008-07-16 08:00:33 51°18.835 2°39.815 21.4382 0.072051 0.381465 -1.662225
2008-07-16 08:00:38 51°18.846 2°39.794 21.4366 0.072051 0.381465 -1.627401
2008-07-16 08:00:43 51°18.858 2°39.773 21.4401 0.072051 0.381471 -1.662225
2008-07-16 08:00:48 51°18.868 2°39.751 21.4366 0.072051 0.381471 -1.662225
2008-07-16 08:00:53 51°18.879 2°39.73 21.4421 0.072051 0.381471 -1.662225
2008-07-16 08:00:58 51°18.89 2°39.709 21.4424 0.072051 0.381471 -1.662225
2008-07-16 08:01:03 51°18.901 2°39.688 21.4422 0.072051 0.381471 -1.662225
2008-07-16 08:01:08 51°18.913 2°39.667 21.4408 0.072051 0.381471 -1.662225
2008-07-16 08:01:13 51°18.924 2°39.646 21.4408 0.072051 0.381471 -1.662225
2008-07-16 08:01:18 51°18.935 2°39.625 21.4416 0.072051 0.381471 -1.662225
2008-07-16 08:01:23 51°18.946 2°39.603 21.4452 0.072051 0.381471 -1.662225
2008-07-16 08:01:28 51°18.957 2°39.582 21.4456 0.072051 0.381471 -1.662225
2008-07-16 08:01:33 51°18.968 2°39.561 21.4435 0.072051 0.381478 -1.662225
2008-07-16 08:01:38 51°18.979 2°39.54 21.4456 0.072051 0.381478 -1.662225
2008-07-16 08:01:43 51°18.991 2°39.519 21.4449 0.072051 0.381484 -1.662225
2008-07-16 08:01:48 51°19.002 2°39.498 21.4489 0.072051 0.381478 -1.662225
2008-07-16 08:01:53 51°19.013 2°39.477 21.451 0.072051 0.381478 -1.662225
2008-07-16 08:01:58 51°19.023 2°39.456 21.4474 0.072051 0.381484 -1.627401
2008-07-16 08:02:03 51°19.035 2°39.435 21.4509 0.072051 0.381484 -1.662225
2008-07-16 08:02:08 51°19.045 2°39.413 21.4489 0.072051 0.381484 -1.662225
2008-07-16 08:02:13 51°19.056 2°39.392 21.4536 0.072051 0.381484 -1.662225
2008-07-16 08:02:18 51°19.067 2°39.371 21.4504 0.072051 0.381484 -1.662225
2008-07-16 08:02:23 51°19.078 2°39.349 21.4546 0.072051 0.381484 -1.662225
2008-07-16 08:02:28 51°19.089 2°39.328 21.4572 0.072051 0.381484 -1.662225
2008-07-16 08:02:33 51°19.099 2°39.306 21.4534 0.072051 0.381491 -1.662225
2008-07-16 08:02:38 51°19.109 2°39.284 21.4563 0.072051 0.381491 -1.662225
2008-07-16 08:02:43 51°19.119 2°39.262 21.4551 0.072051 0.381491 -1.662225
2008-07-16 08:02:48 51°19.129 2°39.239 21.4529 0.072051 0.381491 -1.662225
2008-07-16 08:02:53 51°19.139 2°39.217 21.458 0.072051 0.381491 -1.662225
2008-07-16 08:02:58 51°19.149 2°39.195 21.4585 0.072051 0.381491 -1.662225
2008-07-16 08:03:03 51°19.159 2°39.172 21.4582 0.072051 0.381491 -1.662225
2008-07-16 08:03:08 51°19.169 2°39.15 21.4549 0.072051 0.381497 -1.662225
2008-07-16 08:03:13 51°19.179 2°39.128 21.455 0.072051 0.381497 -1.662225
2008-07-16 08:03:18 51°19.19 2°39.105 21.4563 0.071948 0.380935 -1.662225
2008-07-16 08:03:23 51°19.2 2°39.083 21.4544 0.071948 0.380935 -1.662225
2008-07-16 08:03:28 51°19.21 2°39.061 21.4575 0.072051 0.381497 -1.662225
2008-07-16 08:03:33 51°19.22 2°39.039 21.4592 0.072051 0.381504 -1.662225
2008-07-16 08:03:38 51°19.23 2°39.017 21.4653 0.072051 0.381504 -1.627401
2008-07-16 08:03:43 51°19.24 2°38.994 21.4627 0.071948 0.380941 -1.662225
2008-07-16 08:03:48 51°19.251 2°38.972 21.4624 0.072051 0.381504 -1.662225
2008-07-16 08:03:53 51°19.261 2°38.95 21.4668 0.072051 0.381504 -1.662225
2008-07-16 08:03:58 51°19.271 2°38.928 21.4636 0.072051 0.38151 -1.662225
2008-07-16 08:04:03 51°19.281 2°38.906 21.4594 0.072051 0.381504 -1.662225
2008-07-16 08:04:08 51°19.292 2°38.884 21.4612 0.072051 0.381504 -1.662225
2008-07-16 08:04:13 51°19.302 2°38.862 21.4694 0.072051 0.381504 -1.662225
2008-07-16 08:04:18 51°19.312 2°38.84 21.4636 0.072051 0.38151 -1.662225
2008-07-16 08:04:23 51°19.323 2°38.818 21.4662 0.072051 0.38151 -1.662225
2008-07-16 08:04:28 51°19.333 2°38.796 21.4698 0.072051 0.38151 -1.662225
2008-07-16 08:04:33 51°19.343 2°38.774 21.464 0.071948 0.380948 -1.662225
2008-07-16 08:04:38 51°19.353 2°38.752 21.4725 0.071948 0.380948 -1.662225
2008-07-16 08:04:43 51°19.364 2°38.73 21.4684 0.071948 0.380948 -1.662225
2008-07-16 08:04:48 51°19.374 2°38.708 21.474 0.071948 0.380954 -1.662225
2008-07-16 08:04:53 51°19.384 2°38.685 21.4724 0.071948 0.380954 -1.662225
2008-07-16 08:04:58 51°19.394 2°38.664 21.4684 0.071948 0.380954 -1.662225
2008-07-16 08:05:03 51°19.404 2°38.642 21.4687 0.071948 0.380954 -1.662225
2008-07-16 08:05:08 51°19.415 2°38.62 21.4743 0.071948 0.380948 -1.662225
2008-07-16 08:05:13 51°19.425 2°38.598 21.474 0.071948 0.380954 -1.662225
2008-07-16 08:05:19 51°19.437 2°38.571 21.4709 0.072051 0.381517 -1.662225
2008-07-16 08:05:23 51°19.446 2°38.554 21.4744 0.072051 0.381517 -1.662225
2008-07-16 08:05:28 51°19.456 2°38.532 21.4785 0.071948 0.380954 -1.662225
2008-07-16 08:05:33 51°19.466 2°38.51 21.4755 0.071948 0.380961 -1.662225
2008-07-16 08:05:38 51°19.477 2°38.489 21.4779 0.071948 0.380954 -1.662225
2008-07-16 08:05:43 51°19.487 2°38.467 21.4716 0.071948 0.380961 -1.662225
2008-07-16 08:05:48 51°19.497 2°38.445 21.4753 0.071948 0.380961 -1.662225
2008-07-16 08:05:53 51°19.507 2°38.423 21.4754 0.071948 0.380961 -1.662225
2008-07-16 08:05:58 51°19.518 2°38.402 21.4814 0.071948 0.380961 -1.662225
2008-07-16 08:06:03 51°19.528 2°38.379 21.4761 0.072051 0.381523 -1.662225
2008-07-16 08:06:08 51°19.538 2°38.358 21.4821 0.071948 0.380961 -1.662225
2008-07-16 08:06:13 51°19.549 2°38.337 21.4804 0.071948 0.380961 -1.662225
2008-07-16 08:06:18 51°19.559 2°38.315 21.4806 0.071948 0.380967 -1.662225
2008-07-16 08:06:23 51°19.57 2°38.294 21.4835 0.071948 0.380967 -1.662225
2008-07-16 08:06:28 51°19.58 2°38.272 21.4767 0.071948 0.380967 -1.662225
2008-07-16 08:06:33 51°19.591 2°38.25 21.484 0.071948 0.380967 -1.662225
2008-07-16 08:06:38 51°19.601 2°38.229 21.4859 0.071948 0.380967 -1.662225
2008-07-16 08:06:43 51°19.611 2°38.207 21.4847 0.071948 0.380967 -1.662225
2008-07-16 08:06:48 51°19.622 2°38.185 21.4891 0.071948 0.380973 -1.662225
2008-07-16 08:06:53 51°19.632 2°38.164 21.4857 0.071948 0.380973 -1.662225
2008-07-16 08:06:58 51°19.643 2°38.142 21.4854 0.071948 0.380973 -1.662225
2008-07-16 08:07:03 51°19.653 2°38.12 21.4827 0.071948 0.380973 -1.662225
2008-07-16 08:07:08 51°19.663 2°38.099 21.4882 0.071948 0.380973 -1.662225
2008-07-16 08:07:13 51°19.673 2°38.077 21.4891 0.071948 0.380973 -1.662225
2008-07-16 08:07:19 51°19.686 2°38.051 21.4908 0.071948 0.380973 -1.662225
2008-07-16 08:07:23 51°19.694 2°38.033 21.489 0.071948 0.380973 -1.662225
2008-07-16 08:07:28 51°19.704 2°38.012 21.4877 0.071948 0.38098 -1.662225
2008-07-16 08:07:33 51°19.715 2°37.99 21.4884 0.071948 0.38098 -1.662225
2008-07-16 08:07:38 51°19.725 2°37.968 21.4915 0.071948 0.380973 -1.662225
2008-07-16 08:07:43 51°19.736 2°37.947 21.4901 0.071948 0.38098 -1.662225
2008-07-16 08:07:48 51°19.746 2°37.925 21.4925 0.071948 0.38098 -1.662225
2008-07-16 08:07:53 51°19.756 2°37.903 21.4882 0.071948 0.38098 -1.662225
2008-07-16 08:07:58 51°19.767 2°37.882 21.4944 0.071948 0.380986 -1.662225
2008-07-16 08:08:03 51°19.777 2°37.86 21.4942 0.071948 0.380986 -1.662225
2008-07-16 08:08:08 51°19.788 2°37.839 21.4964 0.071948 0.380986 -1.662225
2008-07-16 08:08:13 51°19.798 2°37.817 21.4973 0.071948 0.380986 -1.662225
2008-07-16 08:08:18 51°19.808 2°37.795 21.4967 0.071948 0.38098 -1.662225
2008-07-16 08:08:23 51°19.819 2°37.773 21.4999 0.071948 0.38098 -1.662225
2008-07-16 08:08:28 51°19.828 2°37.75 21.4938 0.071948 0.380986 -1.662225
2008-07-16 08:08:33 51°19.838 2°37.728 21.5002 0.071948 0.380986 -1.662225
2008-07-16 08:08:38 51°19.848 2°37.705 21.4979 0.071948 0.380986 -1.662225
2008-07-16 08:08:43 51°19.857 2°37.683 21.5034 0.071948 0.380986 -1.662225
2008-07-16 08:08:48 51°19.866 2°37.66 21.5022 0.071948 0.380986 -1.627401
2008-07-16 08:08:53 51°19.875 2°37.638 21.5013 0.071948 0.380986 -1.627401
2008-07-16 08:08:58 51°19.883 2°37.615 21.5005 0.071948 0.380986 -1.662225
2008-07-16 08:09:03 51°19.891 2°37.593 21.5022 0.071948 0.380986 -1.662225
2008-07-16 08:09:08 51°19.899 2°37.572 21.4988 0.071948 0.380993 -1.662225
2008-07-16 08:09:13 51°19.906 2°37.552 21.5054 0.071948 0.380999 -1.662225
2008-07-16 08:09:18 51°19.912 2°37.532 21.5082 0.071948 0.380999 -1.662225
2008-07-16 08:09:23 51°19.919 2°37.514 21.5029 0.071948 0.380999 -1.662225
2008-07-16 08:09:28 51°19.925 2°37.496 21.5088 0.071948 0.380999 -1.662225
2008-07-16 08:09:33 51°19.931 2°37.478 21.506 0.071948 0.380999 -1.662225
2008-07-16 08:09:39 51°19.938 2°37.457 21.5081 0.071948 0.380999 -1.662225
2008-07-16 08:09:43 51°19.943 2°37.444 21.5074 0.071948 0.381006 -1.662225
2008-07-16 08:09:48 51°19.949 2°37.427 21.5077 0.071948 0.381006 -1.662225
2008-07-16 08:09:53 51°19.954 2°37.41 21.5021 0.071948 0.381006 -1.662225
2008-07-16 08:09:58 51°19.96 2°37.394 21.5099 0.071948 0.381006 -1.662225
2008-07-16 08:10:03 51°19.966 2°37.378 21.5107 0.071948 0.380999 -1.662225
2008-07-16 08:10:08 51°19.971 2°37.362 21.507 0.071948 0.381006 -1.662225
2008-07-16 08:10:13 51°19.977 2°37.346 21.5114 0.071948 0.381006 -1.662225
2008-07-16 08:10:18 51°19.983 2°37.33 21.5158 0.071948 0.380999 -1.662225
2008-07-16 08:10:23 51°19.988 2°37.314 21.5143 0.071948 0.380999 -1.662225
2008-07-16 08:10:28 51°19.993 2°37.299 21.5131 0.071948 0.381006 -1.662225
2008-07-16 08:10:33 51°19.998 2°37.283 21.5185 0.071948 0.381006 -1.662225
2008-07-16 08:10:38 51°20.003 2°37.266 21.5153 0.071948 0.381012 -1.662225
2008-07-16 08:10:43 51°20.008 2°37.249 21.5171 0.071948 0.381012 -1.662225
2008-07-16 08:10:48 51°20.012 2°37.233 21.5116 0.071948 0.381012 -1.662225
2008-07-16 08:10:53 51°20.016 2°37.216 21.5139 0.071948 0.381012 -1.662225
2008-07-16 08:10:58 51°20.019 2°37.198 21.5161 0.071948 0.381012 -1.662225
2008-07-16 08:11:03 51°20.023 2°37.181 21.5159 0.071948 0.381012 -1.662225
2008-07-16 08:11:08 51°20.027 2°37.164 21.516 0.071948 0.381012 -1.662225
2008-07-16 08:11:13 51°20.031 2°37.148 21.5118 0.071948 0.381012 -1.662225
2008-07-16 08:11:18 51°20.034 2°37.132 21.5165 0.071948 0.381019 -1.627401
2008-07-16 08:11:23 51°20.037 2°37.117 21.5163 0.071948 0.381019 -1.627401
2008-07-16 08:11:28 51°20.041 2°37.103 21.5185 0.071948 0.381019 -1.662225
2008-07-16 08:11:33 51°20.044 2°37.09 21.5182 0.071948 0.381019 -1.662225
2008-07-16 08:11:39 51°20.047 2°37.075 21.5203 0.071948 0.381019 -1.662225
2008-07-16 08:11:43 51°20.049 2°37.065 21.5219 0.071948 0.381025 -1.662225
2008-07-16 08:11:48 51°20.052 2°37.053 21.5197 0.071948 0.381025 -1.662225
2008-07-16 08:11:53 51°20.055 2°37.043 21.5237 0.071948 0.381025 -1.662225
2008-07-16 08:11:58 51°20.057 2°37.032 21.5261 0.071948 0.381025 -1.627401
2008-07-16 08:12:03 51°20.06 2°37.022 21.5234 0.071948 0.381025 -1.662225
2008-07-16 08:12:08 51°20.063 2°37.012 21.5246 0.071948 0.381025 -1.662225
2008-07-16 08:12:13 51°20.065 2°37.003 21.5233 0.071948 0.381031 -1.662225
2008-07-16 08:12:18 51°20.068 2°36.995 21.5219 0.071948 0.381031 -1.662225
2008-07-16 08:12:23 51°20.071 2°36.986 21.5303 0.071948 0.381031 -1.662225
2008-07-16 08:12:28 51°20.073 2°36.978 21.5277 0.071948 0.381031 -1.662225
2008-07-16 08:12:33 51°20.076 2°36.971 21.5295 0.071948 0.381031 -1.662225